Darstellungsparameter: Aktuell verwendete Einstellungen:
Skalierung der Graphiken ... ?
xyx+y,   Skalierungsfaktor:      Skalierung: Modus: x, Faktor: 1
Darstellungszeitraum ... ?
Vom - - bis: - -   Zeitraum: 31.08.2017 - 06.09.2017
Min/Max/Avg-Anzeige ... ?
Zeige MMA aktuell
Zeige MMA Monat
Zeige MMA alles
Zeige --A aktuell
Zeige --A Monat
Zeige --A alles
Keine MMA-Anzeige
MMA:
Keine MMA-Graphiken
MMA-Basis: 31.08.2017 - 06.09.2017
Quicknavigation für Darstellung... ?
Tage:      1T, 2T, 3T, 5T -1T -2T -3T -5T +1T +2T +3T +5T
Wochen: 1W, 2W, 3W -1W -2W -3W +1W +2W +3W
Monate: 1M, 3M, 6M -1M -3M -6M +1M +3M +6M
Jahre:    1J, 3J, 5J, 10J -1J -3J -5J -10J +1J +3J +5J +10J
Nutze für die Darstellung ... ?
Originaldaten oder Mittelwerte auf ...
Stundenbasis Tagesbasis Wochenbasis
Monatsbasis Jahresbasis      Datenbasis: Original-Daten
Darstellen als:
Statistik (Auto) Statistik J:M      Darstellung:
Zur Graphik,    zurück zur Übersicht aller Sensoren.
 
Tabellarische Datenbersicht: ?
 
Sensor: Nr:Datum:Temp:Feuchte:
Aussen-T/F 1 31-08-2017 00:11:18 21.9 C 20 %
2 31-08-2017 00:24:17 21.9 C 20 %
3 31-08-2017 00:36:17 21.9 C 20 %
4 31-08-2017 00:48:16 21.9 C 20 %
5 31-08-2017 01:00:18 21.9 C 20 %
6 31-08-2017 01:12:18 19.5 C 29 %
7 31-08-2017 01:24:17 19.5 C 29 %
8 31-08-2017 01:36:17 19.5 C 29 %
9 31-08-2017 01:48:17 19.5 C 29 %
10 31-08-2017 02:00:17 19.7 C 28 %
11 31-08-2017 02:12:17 19.6 C 28 %
12 31-08-2017 02:24:17 19.6 C 28 %
13 31-08-2017 02:36:17 19.6 C 28 %
14 31-08-2017 02:48:17 19.6 C 28 %
15 31-08-2017 03:00:17 19.6 C 28 %
16 31-08-2017 03:12:17 19.6 C 28 %
17 31-08-2017 03:24:17 19.6 C 28 %
18 31-08-2017 03:36:17 19.6 C 28 %
19 31-08-2017 03:48:17 19.6 C 28 %
20 31-08-2017 04:00:17 19.6 C 28 %
21 31-08-2017 04:12:17 19.6 C 26 %
22 31-08-2017 04:24:17 19.6 C 26 %
23 31-08-2017 04:36:17 19.6 C 26 %
24 31-08-2017 04:48:17 19.6 C 26 %
25 31-08-2017 05:00:17 19.6 C 26 %
Sensor: Nr:Datum:Temp:Feuchte:
Aussen-T/F 26 31-08-2017 05:12:17 19.6 C 26 %
27 31-08-2017 05:24:17 19.6 C 26 %
28 31-08-2017 05:36:17 19.6 C 26 %
29 31-08-2017 05:48:17 19.6 C 26 %
30 31-08-2017 06:00:17 19.6 C 26 %
31 31-08-2017 06:12:17 19.6 C 26 %
32 31-08-2017 06:24:17 19.6 C 26 %
33 31-08-2017 06:36:17 19.1 C 30 %
34 31-08-2017 06:48:17 19.3 C 28 %
35 31-08-2017 07:00:17 19.3 C 28 %
36 31-08-2017 07:12:17 18.5 C 21 %
37 31-08-2017 07:24:17 17.4 C 23 %
38 31-08-2017 07:36:17 16.6 C 27 %
39 31-08-2017 07:48:17 15.9 C 33 %
40 31-08-2017 08:00:17 15.4 C 37 %
41 31-08-2017 08:12:17 15.3 C 40 %
42 31-08-2017 08:24:17 15.2 C 42 %
43 31-08-2017 08:36:17 15.2 C 43 %
44 31-08-2017 08:48:17 15 C 42 %
45 31-08-2017 09:00:17 15.4 C 44 %
46 31-08-2017 09:12:17 15.2 C 43 %
47 31-08-2017 09:24:17 14.8 C 43 %
48 31-08-2017 09:36:17 15 C 43 %
49 31-08-2017 09:48:17 15 C 43 %
50 31-08-2017 10:00:18 15.2 C 43 %
Sensor: Nr:Datum:Temp:Feuchte:
Aussen-T/F 51 31-08-2017 10:12:18 15.3 C 43 %
52 31-08-2017 10:24:17 15.2 C 41 %
53 31-08-2017 10:36:17 15.2 C 40 %
54 31-08-2017 10:48:17 15.8 C 40 %
55 31-08-2017 11:00:17 16.6 C 38 %
56 31-08-2017 11:12:17 16.1 C 31 %
57 31-08-2017 11:24:17 16.7 C 29 %
58 31-08-2017 11:36:17 17.1 C 25 %
59 31-08-2017 11:48:17 17.5 C 20 %
60 31-08-2017 12:00:17 18.3 C 20 %
61 31-08-2017 12:12:17 18.7 C 20 %
62 31-08-2017 12:24:17 19 C 20 %
63 31-08-2017 12:36:17 19.2 C 20 %
64 31-08-2017 12:48:17 19.4 C 20 %
65 31-08-2017 13:00:17 19.1 C 20 %
66 31-08-2017 13:12:17 19.2 C 20 %
67 31-08-2017 13:24:17 19.8 C 20 %
68 31-08-2017 13:36:17 20 C 20 %
69 31-08-2017 13:48:17 19.5 C 20 %
70 31-08-2017 14:00:17 18.4 C 20 %
71 31-08-2017 14:12:17 17.8 C 20 %
72 31-08-2017 14:24:17 18.4 C 20 %
73 31-08-2017 14:36:17 17.2 C 20 %
74 31-08-2017 14:48:17 16.4 C 20 %
75 31-08-2017 15:00:17 16.1 C 20 %
Sensor: Nr:Datum:Temp:Feuchte:
Aussen-T/F 76 31-08-2017 15:12:17 16.3 C 22 %
77 31-08-2017 15:24:17 16.3 C 21 %
78 31-08-2017 15:36:17 15.6 C 21 %
79 31-08-2017 15:48:17 15.4 C 25 %
80 31-08-2017 16:00:17 15.7 C 25 %
81 31-08-2017 16:12:17 15.9 C 22 %
82 31-08-2017 16:24:17 16 C 20 %
83 31-08-2017 16:36:17 16.9 C 20 %
84 31-08-2017 16:48:17 17.2 C 20 %
85 31-08-2017 17:00:17 17.1 C 20 %
86 31-08-2017 17:12:17 17.2 C 20 %
87 31-08-2017 17:24:17 17.3 C 20 %
88 31-08-2017 17:36:17 17.5 C 20 %
89 31-08-2017 17:48:17 17.8 C 20 %
90 31-08-2017 18:00:17 18.4 C 20 %
91 31-08-2017 18:12:17 19.3 C 20 %
92 31-08-2017 18:24:17 25.7 C 20 %
93 31-08-2017 18:36:17 26 C 20 %
94 31-08-2017 18:48:17 23.4 C 20 %
95 31-08-2017 19:00:17 19.6 C 20 %
96 31-08-2017 19:12:17 17.5 C 20 %
97 31-08-2017 19:24:18 16.5 C 20 %
98 31-08-2017 19:36:17 16 C 20 %
99 31-08-2017 19:48:17 15.8 C 20 %
100 31-08-2017 20:00:17 15.2 C 21 %
Sensor: Nr:Datum:Temp:Feuchte:
Aussen-T/F 101 31-08-2017 20:12:18 14.6 C 24 %
102 31-08-2017 20:24:17 14.2 C 25 %
103 31-08-2017 20:36:17 13.9 C 27 %
104 31-08-2017 20:48:17 13.5 C 28 %
105 31-08-2017 21:00:17 13.4 C 29 %
106 31-08-2017 21:12:17 13.2 C 30 %
107 31-08-2017 21:24:17 13 C 30 %
108 31-08-2017 21:36:17 12.9 C 32 %
109 31-08-2017 21:48:17 12.7 C 33 %
110 31-08-2017 22:00:17 12.5 C 34 %
111 31-08-2017 22:12:17 12.5 C 35 %
112 31-08-2017 22:24:17 12.4 C 36 %
113 31-08-2017 22:36:17 12.3 C 37 %
114 31-08-2017 22:48:17 12.2 C 39 %
115 31-08-2017 23:00:17 12.1 C 40 %
116 31-08-2017 23:12:17 12.1 C 40 %
117 31-08-2017 23:24:17 11.9 C 41 %
118 31-08-2017 23:36:17 11.9 C 41 %
119 31-08-2017 23:48:17 12 C 41 %
120 01-09-2017 00:00:17 12 C 41 %
121 01-09-2017 00:12:18 12 C 41 %
122 01-09-2017 00:24:17 12 C 41 %
123 01-09-2017 00:36:17 11.8 C 42 %
124 01-09-2017 00:48:17 11.5 C 42 %
125 01-09-2017 01:00:17 11.3 C 42 %
Sensor: Nr:Datum:Temp:Feuchte:
Aussen-T/F 126 01-09-2017 01:12:17 11.2 C 42 %
127 01-09-2017 01:24:17 11.1 C 43 %
128 01-09-2017 01:36:17 11 C 43 %
129 01-09-2017 01:48:17 10.9 C 45 %
130 01-09-2017 02:00:17 10.8 C 45 %
131 01-09-2017 02:12:17 10.7 C 45 %
132 01-09-2017 02:24:18 10.5 C 45 %
133 01-09-2017 02:36:17 10.4 C 45 %
134 01-09-2017 02:48:17 10.4 C 46 %
135 01-09-2017 03:00:17 10.3 C 47 %
136 01-09-2017 03:12:17 10.1 C 47 %
137 01-09-2017 03:24:17 10 C 48 %
138 01-09-2017 03:36:17 10 C 49 %
139 01-09-2017 03:48:17 9.9 C 50 %
140 01-09-2017 04:00:17 10 C 51 %
141 01-09-2017 04:12:17 9.9 C 51 %
142 01-09-2017 04:24:17 9.8 C 51 %
143 01-09-2017 04:36:17 10.1 C 55 %
144 01-09-2017 04:48:17 10 C 53 %
145 01-09-2017 05:00:17 10.2 C 56 %
146 01-09-2017 05:12:17 10.5 C 59 %
147 01-09-2017 05:24:17 10.5 C 59 %
148 01-09-2017 05:36:17 10.4 C 57 %
149 01-09-2017 05:48:17 10.5 C 58 %
150 01-09-2017 06:00:17 10.5 C 57 %
Sensor: Nr:Datum:Temp:Feuchte:
Aussen-T/F 151 01-09-2017 06:12:17 10.4 C 57 %
152 01-09-2017 06:24:17 10.4 C 57 %
153 01-09-2017 06:36:17 10.4 C 57 %
154 01-09-2017 06:48:17 10.5 C 57 %
155 01-09-2017 07:00:17 10.5 C 57 %
156 01-09-2017 07:12:17 10.4 C 55 %
157 01-09-2017 07:24:17 10.2 C 51 %
158 01-09-2017 07:36:18 10.3 C 50 %
159 01-09-2017 07:48:17 10.6 C 51 %
160 01-09-2017 08:00:17 10.8 C 51 %
161 01-09-2017 08:12:17 10.8 C 49 %
162 01-09-2017 08:24:17 10.8 C 48 %
163 01-09-2017 08:36:17 11.1 C 46 %
164 01-09-2017 08:48:17 11.4 C 46 %
165 01-09-2017 09:00:17 11.5 C 44 %
166 01-09-2017 09:12:17 11.6 C 42 %
167 01-09-2017 09:24:17 12.3 C 42 %
168 01-09-2017 09:36:17 12.3 C 40 %
169 01-09-2017 09:48:17 13 C 38 %
170 01-09-2017 10:00:17 13.5 C 37 %
171 01-09-2017 10:12:17 13.6 C 36 %
172 01-09-2017 10:24:17 13.9 C 33 %
173 01-09-2017 10:36:17 14.1 C 30 %
174 01-09-2017 10:48:17 13.9 C 26 %
175 01-09-2017 11:00:17 14.3 C 26 %
Sensor: Nr:Datum:Temp:Feuchte:
Aussen-T/F 176 01-09-2017 11:12:17 14.1 C 25 %
177 01-09-2017 11:24:17 14.2 C 26 %
178 01-09-2017 11:36:17 14.4 C 26 %
179 01-09-2017 11:48:17 14.6 C 26 %
180 01-09-2017 12:00:17 15 C 25 %
181 01-09-2017 12:12:17 15.4 C 23 %
182 01-09-2017 12:24:17 16 C 21 %
183 01-09-2017 12:36:17 16.5 C 20 %
184 01-09-2017 12:48:17 16.7 C 20 %
185 01-09-2017 13:00:17 17.7 C 20 %
186 01-09-2017 13:12:17 18.5 C 20 %
187 01-09-2017 13:24:17 19.4 C 20 %
188 01-09-2017 13:36:17 19.7 C 20 %
189 01-09-2017 13:48:17 20 C 20 %
190 01-09-2017 14:00:17 20.1 C 20 %
191 01-09-2017 14:12:17 19.6 C 20 %
192 01-09-2017 14:24:17 19.4 C 20 %
193 01-09-2017 14:36:17 19.6 C 20 %
194 01-09-2017 14:48:17 19.9 C 20 %
195 01-09-2017 15:00:17 19.7 C 20 %
196 01-09-2017 15:12:17 18.6 C 20 %
197 01-09-2017 15:24:17 18.4 C 20 %
198 01-09-2017 15:36:17 18.6 C 20 %
199 01-09-2017 15:48:17 18.8 C 20 %
200 01-09-2017 16:00:17 18.9 C 20 %
Sensor: Nr:Datum:Temp:Feuchte:
Aussen-T/F 201 01-09-2017 16:12:17 19.3 C 20 %
202 01-09-2017 16:24:17 19.3 C 20 %
203 01-09-2017 16:36:17 19.6 C 20 %
204 01-09-2017 16:48:17 19.7 C 20 %
205 01-09-2017 17:00:17 19.5 C 20 %
206 01-09-2017 17:12:17 19.3 C 20 %
207 01-09-2017 17:24:17 19 C 20 %
208 01-09-2017 17:36:17 18.2 C 20 %
209 01-09-2017 17:48:17 18 C 20 %
210 01-09-2017 18:00:17 17.7 C 20 %
211 01-09-2017 18:12:17 20.4 C 20 %
212 01-09-2017 18:24:17 22.8 C 20 %
213 01-09-2017 18:36:17 20.9 C 20 %
214 01-09-2017 18:48:17 18.5 C 20 %
215 01-09-2017 19:00:17 18.1 C 20 %
216 01-09-2017 19:12:17 16.7 C 20 %
217 01-09-2017 19:24:17 16.4 C 20 %
218 01-09-2017 19:36:17 16.1 C 20 %
219 01-09-2017 19:48:17 15.4 C 20 %
220 01-09-2017 20:00:17 14.9 C 23 %
221 01-09-2017 20:12:17 14.5 C 25 %
222 01-09-2017 20:24:17 14.3 C 25 %
223 01-09-2017 20:36:18 14.2 C 26 %
224 01-09-2017 20:48:17 14.2 C 27 %
225 01-09-2017 21:00:17 14.1 C 28 %
Sensor: Nr:Datum:Temp:Feuchte:
Aussen-T/F 226 01-09-2017 21:12:17 14 C 28 %
227 01-09-2017 21:24:17 13.8 C 29 %
228 01-09-2017 21:36:17 13.5 C 29 %
229 01-09-2017 21:48:17 13 C 30 %
230 01-09-2017 22:00:17 12.8 C 31 %
231 01-09-2017 22:12:17 12.7 C 32 %
232 01-09-2017 22:24:17 12.9 C 33 %
233 01-09-2017 22:36:17 12.9 C 34 %
234 01-09-2017 22:48:17 13 C 34 %
235 01-09-2017 23:00:17 13.1 C 34 %
236 01-09-2017 23:12:17 13.1 C 34 %
237 01-09-2017 23:24:17 13.1 C 35 %
238 01-09-2017 23:36:17 13.1 C 35 %
239 01-09-2017 23:48:17 13.2 C 35 %
240 02-09-2017 00:00:17 13.2 C 35 %
241 02-09-2017 00:12:17 13.2 C 35 %
242 02-09-2017 00:24:17 13.1 C 35 %
243 02-09-2017 00:36:17 13 C 35 %
244 02-09-2017 00:48:17 13 C 36 %
245 02-09-2017 01:00:17 13 C 36 %
246 02-09-2017 01:12:17 12.8 C 36 %
247 02-09-2017 01:24:17 12.8 C 37 %
248 02-09-2017 01:36:17 12.8 C 37 %
249 02-09-2017 01:48:17 12.7 C 39 %
250 02-09-2017 02:00:18 12.4 C 39 %
Sensor: Nr:Datum:Temp:Feuchte:
Aussen-T/F 251 02-09-2017 02:12:18 12.3 C 40 %
252 02-09-2017 02:24:17 12.2 C 40 %
253 02-09-2017 02:36:17 12.2 C 40 %
254 02-09-2017 02:48:17 12.2 C 41 %
255 02-09-2017 03:00:17 12.3 C 42 %
256 02-09-2017 03:12:17 12.4 C 43 %
257 02-09-2017 03:24:17 12.4 C 44 %
258 02-09-2017 03:36:18 12.4 C 44 %
259 02-09-2017 03:48:17 12.3 C 44 %
260 02-09-2017 04:00:17 12.3 C 43 %
261 02-09-2017 04:12:17 12.3 C 43 %
262 02-09-2017 04:24:17 12.2 C 43 %
263 02-09-2017 04:36:17 12.1 C 43 %
264 02-09-2017 04:48:17 12 C 43 %
265 02-09-2017 05:00:17 12.1 C 43 %
266 02-09-2017 05:12:17 12.1 C 44 %
267 02-09-2017 05:24:17 12.1 C 44 %
268 02-09-2017 05:36:17 12 C 44 %
269 02-09-2017 05:48:17 11.8 C 45 %
270 02-09-2017 06:00:17 11.6 C 45 %
271 02-09-2017 06:12:17 11.7 C 46 %
272 02-09-2017 06:24:17 11.8 C 47 %
273 02-09-2017 06:36:17 12 C 48 %
274 02-09-2017 06:48:17 12.1 C 49 %
275 02-09-2017 07:00:17 12.1 C 48 %
Sensor: Nr:Datum:Temp:Feuchte:
Aussen-T/F 276 02-09-2017 07:12:17 12.2 C 48 %
277 02-09-2017 07:24:17 12.3 C 48 %
278 02-09-2017 07:36:17 12.4 C 47 %
279 02-09-2017 07:48:17 12.3 C 46 %
280 02-09-2017 08:00:17 12.4 C 45 %
281 02-09-2017 08:12:17 12.4 C 45 %
282 02-09-2017 08:24:17 12.4 C 45 %
283 02-09-2017 08:36:17 12.5 C 44 %
284 02-09-2017 08:48:17 12.5 C 44 %
285 02-09-2017 09:00:17 12.7 C 45 %
286 02-09-2017 09:12:17 13 C 45 %
287 02-09-2017 09:24:17 13.2 C 44 %
288 02-09-2017 09:36:17 13.4 C 44 %
289 02-09-2017 09:48:17 13.7 C 42 %
290 02-09-2017 10:00:17 13.7 C 42 %
291 02-09-2017 10:12:17 13.7 C 42 %
292 02-09-2017 10:24:17 15 C 35 %
293 02-09-2017 10:36:17 15.5 C 31 %
294 02-09-2017 10:48:17 15.6 C 25 %
295 02-09-2017 11:00:17 15.8 C 20 %
296 02-09-2017 11:12:17 16.5 C 20 %
297 02-09-2017 11:24:17 16.8 C 20 %
298 02-09-2017 11:36:17 17.3 C 20 %
299 02-09-2017 11:48:17 17.9 C 20 %
300 02-09-2017 12:00:17 18.1 C 20 %
Sensor: Nr:Datum:Temp:Feuchte:
Aussen-T/F 301 02-09-2017 12:12:17 18.1 C 20 %
302 02-09-2017 12:24:17 17.6 C 20 %
303 02-09-2017 12:36:17 17.8 C 20 %
304 02-09-2017 12:48:17 17.6 C 20 %
305 02-09-2017 13:00:17 17.8 C 20 %
306 02-09-2017 13:12:17 17.9 C 20 %
307 02-09-2017 13:24:17 19.2 C 20 %
308 02-09-2017 13:36:17 18.7 C 20 %
309 02-09-2017 13:48:17 18.4 C 20 %
310 02-09-2017 14:00:18 19.6 C 20 %
311 02-09-2017 14:12:18 19.6 C 20 %
312 02-09-2017 14:24:17 18.7 C 20 %
313 02-09-2017 14:36:17 18.2 C 20 %
314 02-09-2017 14:48:17 19.2 C 20 %
315 02-09-2017 15:00:17 19.3 C 20 %
316 02-09-2017 15:12:17 20.3 C 20 %
317 02-09-2017 15:24:17 19.7 C 20 %
318 02-09-2017 15:36:17 19.7 C 20 %
319 02-09-2017 15:48:17 20.1 C 20 %
320 02-09-2017 16:00:17 20.1 C 20 %
321 02-09-2017 16:12:17 17.2 C 20 %
322 02-09-2017 16:24:17 15.8 C 20 %
323 02-09-2017 16:36:17 15.6 C 20 %
324 02-09-2017 16:48:17 15.3 C 24 %
325 02-09-2017 17:00:17 15 C 26 %
Sensor: Nr:Datum:Temp:Feuchte:
Aussen-T/F 326 02-09-2017 17:12:17 14.6 C 29 %
327 02-09-2017 17:24:17 14.4 C 31 %
328 02-09-2017 17:36:17 14.4 C 32 %
329 02-09-2017 17:48:17 15.1 C 32 %
330 02-09-2017 18:00:17 16.6 C 27 %
331 02-09-2017 18:12:17 18.5 C 24 %
332 02-09-2017 18:24:17 19.7 C 20 %
333 02-09-2017 18:36:17 20 C 20 %
334 02-09-2017 18:48:17 17.3 C 20 %
335 02-09-2017 19:00:17 16.6 C 22 %
336 02-09-2017 19:12:17 15.6 C 27 %
337 02-09-2017 19:24:17 15.2 C 30 %
338 02-09-2017 19:36:17 14.6 C 32 %
339 02-09-2017 19:48:17 14.4 C 33 %
340 02-09-2017 20:00:17 14.2 C 34 %
341 02-09-2017 20:12:17 13.9 C 35 %
342 02-09-2017 20:24:17 13.7 C 36 %
343 02-09-2017 20:36:17 13.7 C 36 %
344 02-09-2017 20:48:17 13.5 C 37 %
345 02-09-2017 21:00:17 13.5 C 38 %
346 02-09-2017 21:12:18 13.3 C 39 %
347 02-09-2017 21:24:17 13.2 C 39 %
348 02-09-2017 21:36:17 13.2 C 39 %
349 02-09-2017 21:48:17 12.9 C 40 %
350 02-09-2017 22:00:17 12.9 C 40 %
Sensor: Nr:Datum:Temp:Feuchte:
Aussen-T/F 351 02-09-2017 22:12:17 12.9 C 41 %
352 02-09-2017 22:24:17 12.9 C 41 %
353 02-09-2017 22:36:17 12.8 C 41 %
354 02-09-2017 22:48:17 12.6 C 40 %
355 02-09-2017 23:00:17 12.4 C 40 %
356 02-09-2017 23:12:17 12.3 C 40 %
357 02-09-2017 23:24:17 12.2 C 40 %
358 02-09-2017 23:36:17 11.9 C 40 %
359 02-09-2017 23:48:17 11.9 C 40 %
360 03-09-2017 00:00:17 11.9 C 40 %
361 03-09-2017 00:12:17 11.9 C 40 %
362 03-09-2017 00:24:17 11 C 42 %
363 03-09-2017 00:36:17 11 C 42 %
364 03-09-2017 00:48:17 11 C 42 %
365 03-09-2017 01:00:17 11 C 42 %
366 03-09-2017 01:12:17 11 C 42 %
367 03-09-2017 01:24:17 11 C 42 %
368 03-09-2017 01:36:17 11 C 42 %
369 03-09-2017 01:48:17 11 C 42 %
370 03-09-2017 02:00:18 11 C 42 %
371 03-09-2017 02:12:18 11 C 42 %
372 03-09-2017 02:24:17 11 C 42 %
373 03-09-2017 02:36:17 11 C 42 %
374 03-09-2017 02:48:17 11 C 42 %
375 03-09-2017 03:00:17 11 C 42 %
Sensor: Nr:Datum:Temp:Feuchte:
Aussen-T/F 376 03-09-2017 03:12:17 11 C 42 %
377 03-09-2017 03:24:17 9.5 C 49 %
378 03-09-2017 03:36:18 9.5 C 50 %
379 03-09-2017 03:48:17 9.4 C 50 %
380 03-09-2017 04:00:17 9.4 C 50 %
381 03-09-2017 04:12:17 9.4 C 50 %
382 03-09-2017 04:24:17 9.4 C 50 %
383 03-09-2017 04:36:17 9.4 C 50 %
384 03-09-2017 04:48:17 9.4 C 50 %
385 03-09-2017 05:00:18 9.4 C 50 %
386 03-09-2017 05:12:18 9.4 C 50 %
387 03-09-2017 05:24:17 10.3 C 52 %
388 03-09-2017 05:36:17 10.3 C 52 %
389 03-09-2017 05:48:17 10.4 C 48 %
390 03-09-2017 06:00:17 10.2 C 46 %
391 03-09-2017 06:12:17 10 C 45 %
392 03-09-2017 06:24:17 10 C 45 %
393 03-09-2017 06:36:17 9.9 C 44 %
394 03-09-2017 06:48:17 10.1 C 44 %
395 03-09-2017 07:00:18 10.1 C 43 %
396 03-09-2017 07:12:18 10.1 C 43 %
397 03-09-2017 07:24:17 10 C 42 %
398 03-09-2017 07:36:17 10.1 C 42 %
399 03-09-2017 07:48:17 10.2 C 42 %
400 03-09-2017 08:00:17 10.1 C 41 %
Sensor: Nr:Datum:Temp:Feuchte:
Aussen-T/F 401 03-09-2017 08:12:18 10.2 C 40 %
402 03-09-2017 08:24:17 10.4 C 40 %
403 03-09-2017 08:36:17 10.5 C 38 %
404 03-09-2017 08:48:17 10.6 C 37 %
405 03-09-2017 09:00:18 10.8 C 36 %
406 03-09-2017 09:12:18 10.8 C 35 %
407 03-09-2017 09:24:17 11.2 C 33 %
408 03-09-2017 09:36:17 11.4 C 32 %
409 03-09-2017 09:48:17 11.4 C 31 %
410 03-09-2017 10:00:17 11.8 C 31 %
411 03-09-2017 10:12:17 12.3 C 28 %
412 03-09-2017 10:24:17 12.7 C 26 %
413 03-09-2017 10:36:17 13.2 C 21 %
414 03-09-2017 10:48:17 13.5 C 20 %
415 03-09-2017 11:00:18 14.2 C 20 %
416 03-09-2017 11:12:18 14.6 C 20 %
417 03-09-2017 11:24:17 14.6 C 20 %
418 03-09-2017 11:36:17 15.5 C 20 %
419 03-09-2017 11:48:17 15.7 C 20 %
420 03-09-2017 12:00:17 14.4 C 20 %
421 03-09-2017 12:12:17 13.9 C 20 %
422 03-09-2017 12:24:17 14 C 22 %
423 03-09-2017 12:36:17 14 C 23 %
424 03-09-2017 12:48:17 14.1 C 24 %
425 03-09-2017 13:00:17 14.4 C 25 %
Sensor: Nr:Datum:Temp:Feuchte:
Aussen-T/F 426 03-09-2017 13:12:17 14.4 C 25 %
427 03-09-2017 13:24:17 15 C 23 %
428 03-09-2017 13:36:17 15.3 C 20 %
429 03-09-2017 13:48:17 15.8 C 20 %
430 03-09-2017 14:00:17 16 C 20 %
431 03-09-2017 14:12:17 16.3 C 20 %
432 03-09-2017 14:24:17 16.3 C 20 %
433 03-09-2017 14:36:17 16.3 C 20 %
434 03-09-2017 14:48:17 16.3 C 20 %
435 03-09-2017 15:00:17 16.3 C 20 %
436 03-09-2017 15:12:17 16.3 C 20 %
437 03-09-2017 15:24:16 16.3 C 20 %
438 03-09-2017 15:36:17 16.3 C 20 %
439 03-09-2017 15:48:17 16.3 C 20 %
440 03-09-2017 16:00:18 16.3 C 20 %
441 03-09-2017 16:12:18 16.3 C 20 %
442 03-09-2017 16:24:17 16.3 C 20 %
443 03-09-2017 16:36:17 16.3 C 20 %
444 03-09-2017 16:48:17 16.3 C 20 %
445 03-09-2017 17:00:17 16.3 C 20 %
446 03-09-2017 17:12:17 16.3 C 20 %
447 03-09-2017 17:24:17 16.3 C 20 %
448 03-09-2017 17:36:17 16.3 C 20 %
449 03-09-2017 17:48:17 16.3 C 20 %
450 03-09-2017 18:00:18 16.3 C 20 %
Sensor: Nr:Datum:Temp:Feuchte:
Aussen-T/F 451 03-09-2017 18:12:18 16.3 C 20 %
452 03-09-2017 18:24:17 16.3 C 20 %
453 03-09-2017 18:36:17 16.3 C 20 %
454 03-09-2017 18:48:17 16.3 C 20 %
455 03-09-2017 19:00:18 16.3 C 20 %
456 03-09-2017 19:12:18 16.3 C 20 %
457 03-09-2017 19:24:18 16.3 C 20 %
458 03-09-2017 19:36:17 16.3 C 20 %
459 03-09-2017 19:48:17 16.3 C 20 %
460 03-09-2017 20:00:17 15.4 C 20 %
461 03-09-2017 20:12:17 15.2 C 20 %
462 03-09-2017 20:24:17 14.8 C 21 %
463 03-09-2017 20:36:17 14.3 C 22 %
464 03-09-2017 20:48:17 13.8 C 25 %
465 03-09-2017 21:00:17 13.8 C 25 %
466 03-09-2017 21:12:17 13.8 C 25 %
467 03-09-2017 21:24:17 13.8 C 25 %
468 03-09-2017 21:36:17 12.9 C 30 %
469 03-09-2017 21:48:17 12.9 C 30 %
470 03-09-2017 22:00:17 12.2 C 31 %
471 03-09-2017 22:12:17 11.8 C 33 %
472 03-09-2017 22:24:17 11.8 C 33 %
473 03-09-2017 22:36:17 11.4 C 35 %
474 03-09-2017 22:48:17 11.4 C 35 %
475 03-09-2017 23:00:17 11.3 C 35 %
Sensor: Nr:Datum:Temp:Feuchte:
Aussen-T/F 476 03-09-2017 23:12:17 11.2 C 35 %
477 03-09-2017 23:24:17 11 C 36 %
478 03-09-2017 23:36:17 10.8 C 38 %
479 03-09-2017 23:48:17 10.7 C 39 %
480 04-09-2017 00:00:18 10.6 C 39 %
481 04-09-2017 00:12:18 10.4 C 40 %
482 04-09-2017 00:24:17 10.3 C 41 %
483 04-09-2017 00:36:17 10.2 C 41 %
484 04-09-2017 00:48:17 10.2 C 41 %
485 04-09-2017 01:00:17 10.1 C 41 %
486 04-09-2017 01:12:17 10 C 42 %
487 04-09-2017 01:24:17 9.7 C 43 %
488 04-09-2017 01:36:17 9.6 C 43 %
489 04-09-2017 01:48:17 9.6 C 44 %
490 04-09-2017 02:00:17 9.5 C 45 %
491 04-09-2017 02:12:17 9.6 C 45 %
492 04-09-2017 02:24:17 9.5 C 45 %
493 04-09-2017 02:36:17 9.3 C 45 %
494 04-09-2017 02:48:17 9.3 C 46 %
495 04-09-2017 03:00:17 9.2 C 46 %
496 04-09-2017 03:12:17 9.2 C 47 %
497 04-09-2017 03:24:17 9.1 C 48 %
498 04-09-2017 03:36:17 9.1 C 49 %
499 04-09-2017 03:48:17 8.9 C 49 %
500 04-09-2017 04:00:17 8.8 C 50 %
Sensor: Nr:Datum:Temp:Feuchte:
Aussen-T/F 501 04-09-2017 04:12:17 8.9 C 51 %
502 04-09-2017 04:24:17 8.7 C 52 %
503 04-09-2017 04:36:17 8.8 C 53 %
504 04-09-2017 04:48:17 8.8 C 53 %
505 04-09-2017 05:00:17 9 C 56 %
506 04-09-2017 05:12:18 9.1 C 56 %
507 04-09-2017 05:24:17 9.1 C 56 %
508 04-09-2017 05:36:17 9.1 C 57 %
509 04-09-2017 05:48:16 9.2 C 58 %
510 04-09-2017 06:00:17 9.5 C 59 %
511 04-09-2017 06:12:17 9.5 C 59 %
512 04-09-2017 06:24:17 9.7 C 61 %
513 04-09-2017 06:36:17 9.7 C 60 %
514 04-09-2017 06:48:17 9.7 C 60 %
515 04-09-2017 07:00:17 9.7 C 59 %
516 04-09-2017 07:12:17 9.8 C 59 %
517 04-09-2017 07:24:17 9.8 C 59 %
518 04-09-2017 07:36:17 9.8 C 57 %
519 04-09-2017 07:48:18 10 C 56 %
520 04-09-2017 08:00:17 10.1 C 56 %
521 04-09-2017 08:12:18 10.2 C 55 %
522 04-09-2017 08:24:17 10.2 C 51 %
523 04-09-2017 08:36:17 10.4 C 49 %
524 04-09-2017 08:48:17 10.4 C 47 %
525 04-09-2017 09:00:17 11 C 46 %
Sensor: Nr:Datum:Temp:Feuchte:
Aussen-T/F 526 04-09-2017 09:12:17 11.1 C 46 %
527 04-09-2017 09:24:17 11.5 C 44 %
528 04-09-2017 09:36:17 11.5 C 44 %
529 04-09-2017 09:48:17 11.5 C 44 %
530 04-09-2017 10:00:17 12.8 C 36 %
531 04-09-2017 10:12:17 12.5 C 30 %
532 04-09-2017 10:24:17 12.3 C 29 %
533 04-09-2017 10:36:17 12.5 C 30 %
534 04-09-2017 10:48:17 13 C 30 %
535 04-09-2017 11:00:17 13.6 C 31 %
536 04-09-2017 11:12:17 14.2 C 28 %
537 04-09-2017 11:24:17 14.6 C 28 %
538 04-09-2017 11:36:17 15.6 C 25 %
539 04-09-2017 11:48:17 15.8 C 21 %
540 04-09-2017 12:00:17 16.2 C 20 %
541 04-09-2017 12:12:17 17.1 C 20 %
542 04-09-2017 12:24:17 18.2 C 20 %
543 04-09-2017 12:36:17 18.5 C 20 %
544 04-09-2017 12:48:17 18.3 C 20 %
545 04-09-2017 13:00:17 19.5 C 20 %
546 04-09-2017 13:12:17 19.9 C 20 %
547 04-09-2017 13:24:17 20.1 C 20 %
548 04-09-2017 13:36:17 20 C 20 %
549 04-09-2017 13:48:17 19.4 C 20 %
550 04-09-2017 14:00:17 19.2 C 20 %
Sensor: Nr:Datum:Temp:Feuchte:
Aussen-T/F 551 04-09-2017 14:12:17 19.2 C 20 %
552 04-09-2017 14:24:17 19.2 C 20 %
553 04-09-2017 14:36:17 19.2 C 20 %
554 04-09-2017 14:48:17 19.1 C 20 %
555 04-09-2017 15:00:17 18.7 C 20 %
556 04-09-2017 15:12:17 19.3 C 20 %
557 04-09-2017 15:24:17 20 C 20 %
558 04-09-2017 15:36:17 20.8 C 20 %
559 04-09-2017 15:48:17 21 C 20 %
560 04-09-2017 16:00:17 20.9 C 20 %
561 04-09-2017 16:12:17 19.8 C 20 %
562 04-09-2017 16:24:17 19.2 C 20 %
563 04-09-2017 16:36:17 19 C 20 %
564 04-09-2017 16:48:17 18.7 C 20 %
565 04-09-2017 17:00:17 18.8 C 20 %
566 04-09-2017 17:12:17 18.9 C 20 %
567 04-09-2017 17:24:18 18.9 C 20 %
568 04-09-2017 17:36:17 18.7 C 20 %
569 04-09-2017 17:48:17 18.1 C 20 %
570 04-09-2017 18:00:17 17.9 C 20 %
571 04-09-2017 18:12:17 17.5 C 20 %
572 04-09-2017 18:24:17 17.2 C 20 %
573 04-09-2017 18:36:17 16.6 C 21 %
574 04-09-2017 18:48:17 16.1 C 22 %
575 04-09-2017 19:00:17 16 C 23 %
Sensor: Nr:Datum:Temp:Feuchte:
Aussen-T/F 576 04-09-2017 19:12:17 16.2 C 22 %
577 04-09-2017 19:24:17 16.2 C 22 %
578 04-09-2017 19:36:17 16 C 21 %
579 04-09-2017 19:48:17 16.1 C 22 %
580 04-09-2017 20:00:17 16 C 24 %
581 04-09-2017 20:12:17 15.9 C 25 %
582 04-09-2017 20:24:17 15.7 C 27 %
583 04-09-2017 20:36:17 15.6 C 27 %
584 04-09-2017 20:48:17 15.6 C 28 %
585 04-09-2017 21:00:17 15.5 C 29 %
586 04-09-2017 21:12:18 15.5 C 29 %
587 04-09-2017 21:24:17 15.5 C 29 %
588 04-09-2017 21:36:17 15.4 C 29 %
589 04-09-2017 21:48:17 15.4 C 30 %
590 04-09-2017 22:00:17 15.3 C 30 %
591 04-09-2017 22:12:17 15.3 C 31 %
592 04-09-2017 22:24:16 15.3 C 31 %
593 04-09-2017 22:36:17 15.2 C 31 %
594 04-09-2017 22:48:17 15.2 C 31 %
595 04-09-2017 23:00:17 15.2 C 32 %
596 04-09-2017 23:12:17 15.2 C 32 %
597 04-09-2017 23:24:17 15.2 C 32 %
598 04-09-2017 23:36:17 15.2 C 32 %
599 04-09-2017 23:48:17 15.2 C 32 %
600 05-09-2017 00:00:17 15.2 C 32 %
Sensor: Nr:Datum:Temp:Feuchte:
Aussen-T/F 601 05-09-2017 00:12:17 15.2 C 31 %
602 05-09-2017 00:24:17 15.2 C 30 %
603 05-09-2017 00:36:17 14.9 C 32 %
604 05-09-2017 00:48:17 14.8 C 34 %
605 05-09-2017 01:00:17 14.7 C 35 %
606 05-09-2017 01:12:17 14.7 C 36 %
607 05-09-2017 01:24:17 14.7 C 37 %
608 05-09-2017 01:36:17 14.6 C 38 %
609 05-09-2017 01:48:17 14.6 C 38 %
610 05-09-2017 02:00:17 14.6 C 39 %
611 05-09-2017 02:12:17 14.6 C 39 %
612 05-09-2017 02:24:17 14.7 C 40 %
613 05-09-2017 02:36:17 14.7 C 40 %
614 05-09-2017 02:48:17 14.6 C 40 %
615 05-09-2017 03:00:17 14.6 C 40 %
616 05-09-2017 03:12:18 14.5 C 41 %
617 05-09-2017 03:24:17 14.5 C 41 %
618 05-09-2017 03:36:17 14.5 C 42 %
619 05-09-2017 03:48:17 14.5 C 42 %
620 05-09-2017 04:00:18 14.4 C 43 %
621 05-09-2017 04:12:18 14.4 C 43 %
622 05-09-2017 04:24:17 14.4 C 44 %
623 05-09-2017 04:36:17 14.4 C 45 %
624 05-09-2017 04:48:17 14.4 C 45 %
625 05-09-2017 05:00:17 14.2 C 45 %
Sensor: Nr:Datum:Temp:Feuchte:
Aussen-T/F 626 05-09-2017 05:12:18 14 C 45 %
627 05-09-2017 05:24:17 13.9 C 48 %
628 05-09-2017 05:36:17 13.9 C 51 %
629 05-09-2017 05:48:17 13.9 C 53 %
630 05-09-2017 06:00:17 13.6 C 52 %
631 05-09-2017 06:12:17 13.3 C 52 %
632 05-09-2017 06:24:17 13.2 C 56 %
633 05-09-2017 06:36:17 13.3 C 60 %
634 05-09-2017 06:48:17 13.4 C 61 %
635 05-09-2017 07:00:17 13.6 C 63 %
636 05-09-2017 07:12:17 13.6 C 63 %
637 05-09-2017 07:24:17 13.6 C 63 %
638 05-09-2017 07:36:17 14 C 65 %
639 05-09-2017 07:48:17 14.1 C 65 %
640 05-09-2017 08:00:17 14.4 C 66 %
641 05-09-2017 08:12:17 14.6 C 66 %
642 05-09-2017 08:24:17 15 C 65 %
643 05-09-2017 08:36:17 15.1 C 64 %
644 05-09-2017 08:48:17 15.3 C 63 %
645 05-09-2017 09:00:17 15.3 C 63 %
646 05-09-2017 09:12:17 15.4 C 60 %
647 05-09-2017 09:24:17 15.3 C 57 %
648 05-09-2017 09:36:17 15 C 52 %
649 05-09-2017 09:48:17 14.9 C 52 %
650 05-09-2017 10:00:17 15 C 53 %
Sensor: Nr:Datum:Temp:Feuchte:
Aussen-T/F 651 05-09-2017 10:12:17 15.6 C 58 %
652 05-09-2017 10:24:17 16.8 C 59 %
653 05-09-2017 10:36:17 17.6 C 49 %
654 05-09-2017 10:48:17 18.2 C 41 %
655 05-09-2017 11:00:17 18.6 C 35 %
656 05-09-2017 11:12:17 19 C 30 %
657 05-09-2017 11:24:17 19.6 C 28 %
658 05-09-2017 11:36:17 19.7 C 24 %
659 05-09-2017 11:48:17 19.3 C 22 %
660 05-09-2017 12:00:17 18.7 C 26 %
661 05-09-2017 12:12:17 18.6 C 29 %
662 05-09-2017 12:24:17 18.6 C 30 %
663 05-09-2017 12:36:17 18.7 C 31 %
664 05-09-2017 12:48:17 19.3 C 32 %
665 05-09-2017 13:00:17 19.7 C 30 %
666 05-09-2017 13:12:17 20.4 C 29 %
667 05-09-2017 13:24:17 21.2 C 25 %
668 05-09-2017 13:36:17 21.6 C 20 %
669 05-09-2017 13:48:17 22 C 20 %
670 05-09-2017 14:00:17 22 C 20 %
671 05-09-2017 14:12:17 22.4 C 20 %
672 05-09-2017 14:24:17 23.1 C 20 %
673 05-09-2017 14:36:17 23.4 C 20 %
674 05-09-2017 14:48:17 24 C 20 %
675 05-09-2017 15:00:17 24.5 C 20 %
Sensor: Nr:Datum:Temp:Feuchte:
Aussen-T/F 676 05-09-2017 15:12:17 24.5 C 20 %
677 05-09-2017 15:24:17 24.5 C 20 %
678 05-09-2017 15:36:17 25.8 C 20 %
679 05-09-2017 15:48:17 26.1 C 20 %
680 05-09-2017 16:00:17 25.7 C 20 %
681 05-09-2017 16:12:17 25.1 C 20 %
682 05-09-2017 16:24:17 24.8 C 20 %
683 05-09-2017 16:36:17 25.5 C 20 %
684 05-09-2017 16:48:17 24.7 C 20 %
685 05-09-2017 17:00:17 24 C 20 %
686 05-09-2017 17:12:17 23.1 C 20 %
687 05-09-2017 17:24:17 22.7 C 20 %
688 05-09-2017 17:36:18 22 C 20 %
689 05-09-2017 17:48:17 21.2 C 20 %
690 05-09-2017 18:00:17 20.9 C 20 %
691 05-09-2017 18:12:17 20.7 C 22 %
692 05-09-2017 18:24:17 20.7 C 22 %
693 05-09-2017 18:36:17 20.4 C 24 %
694 05-09-2017 18:48:17 20.4 C 24 %
695 05-09-2017 19:00:17 20.1 C 25 %
696 05-09-2017 19:12:17 20.1 C 25 %
697 05-09-2017 19:24:16 20.1 C 25 %
698 05-09-2017 19:36:17 19.7 C 27 %
699 05-09-2017 19:48:17 19.6 C 27 %
700 05-09-2017 20:00:17 19.6 C 27 %
Sensor: Nr:Datum:Temp:Feuchte:
Aussen-T/F 701 05-09-2017 20:12:17 19.1 C 30 %
702 05-09-2017 20:24:17 19.1 C 30 %
703 05-09-2017 20:36:17 18.7 C 31 %
704 05-09-2017 20:48:17 18.7 C 31 %
705 05-09-2017 21:00:17 18.7 C 31 %
706 05-09-2017 21:12:17 18.3 C 32 %
707 05-09-2017 21:24:17 18.3 C 32 %
708 05-09-2017 21:36:17 18.3 C 32 %
709 05-09-2017 21:48:17 18.3 C 32 %
710 05-09-2017 22:00:17 18.2 C 33 %
711 05-09-2017 22:12:17 18.1 C 34 %
712 05-09-2017 22:24:17 17.7 C 35 %
713 05-09-2017 22:36:17 17.8 C 36 %
714 05-09-2017 22:48:17 17.6 C 36 %
715 05-09-2017 23:00:18 17.5 C 37 %
716 05-09-2017 23:12:18 17.4 C 38 %
717 05-09-2017 23:24:17 17.1 C 38 %
718 05-09-2017 23:36:17 16.9 C 39 %
719 05-09-2017 23:48:17 16.7 C 39 %
720 06-09-2017 00:00:17 16.7 C 41 %
721 06-09-2017 00:12:17 16.7 C 41 %
722 06-09-2017 00:24:17 16.9 C 42 %
723 06-09-2017 00:36:17 17.1 C 41 %
724 06-09-2017 00:48:17 17.2 C 41 %
725 06-09-2017 01:00:17 17.3 C 40 %
Sensor: Nr:Datum:Temp:Feuchte:
Aussen-T/F 726 06-09-2017 01:12:17 17.3 C 40 %
727 06-09-2017 01:24:17 17.2 C 40 %
728 06-09-2017 01:36:17 17.2 C 40 %
729 06-09-2017 01:48:18 17.3 C 40 %
730 06-09-2017 02:00:17 17.4 C 39 %
731 06-09-2017 02:12:17 17.4 C 39 %
732 06-09-2017 02:24:17 17.5 C 38 %
733 06-09-2017 02:36:17 17.6 C 36 %
734 06-09-2017 02:48:17 17.5 C 35 %
735 06-09-2017 03:00:17 17.5 C 34 %
736 06-09-2017 03:12:17 17.5 C 34 %
737 06-09-2017 03:24:17 17.4 C 34 %
738 06-09-2017 03:36:17 17.1 C 36 %
739 06-09-2017 03:48:17 17.1 C 36 %
740 06-09-2017 04:00:17 17 C 37 %
741 06-09-2017 04:12:17 17 C 37 %
742 06-09-2017 04:24:17 16.9 C 38 %
743 06-09-2017 04:36:17 16.8 C 38 %
744 06-09-2017 04:48:17 16.3 C 38 %
745 06-09-2017 05:00:17 16.1 C 39 %
746 06-09-2017 05:12:17 16 C 40 %
747 06-09-2017 05:24:17 16.4 C 41 %
748 06-09-2017 05:36:17 16.7 C 41 %
749 06-09-2017 05:48:18 17 C 38 %
750 06-09-2017 06:00:17 17.1 C 36 %
Sensor: Nr:Datum:Temp:Feuchte:
Aussen-T/F 751 06-09-2017 06:12:17 17.1 C 32 %
752 06-09-2017 06:24:16 17.3 C 30 %
753 06-09-2017 06:36:18 17.6 C 28 %
754 06-09-2017 06:48:17 17.7 C 27 %
755 06-09-2017 07:00:17 17.6 C 27 %
756 06-09-2017 07:12:18 17 C 31 %
757 06-09-2017 07:24:17 16.8 C 32 %
758 06-09-2017 07:36:17 16.8 C 32 %
759 06-09-2017 07:48:17 17.1 C 31 %
760 06-09-2017 08:00:17 17.2 C 28 %
761 06-09-2017 08:12:17 17.4 C 27 %
762 06-09-2017 08:24:17 17.6 C 26 %
763 06-09-2017 08:36:17 17.9 C 24 %
764 06-09-2017 08:48:17 18.1 C 20 %
765 06-09-2017 09:00:17 18.1 C 20 %
766 06-09-2017 09:12:17 18.3 C 21 %
767 06-09-2017 09:24:17 18.9 C 20 %
768 06-09-2017 09:36:17 19.2 C 20 %
769 06-09-2017 09:48:17 19.4 C 20 %
770 06-09-2017 10:00:17 19.7 C 20 %
771 06-09-2017 10:12:18 19.6 C 20 %
772 06-09-2017 10:24:17 19.9 C 20 %
773 06-09-2017 10:36:17 20.7 C 20 %
774 06-09-2017 10:48:17 20.4 C 20 %
775 06-09-2017 11:00:17 18.7 C 20 %
Sensor: Nr:Datum:Temp:Feuchte:
Aussen-T/F 776 06-09-2017 11:12:17 16.8 C 25 %
777 06-09-2017 11:24:17 16.6 C 25 %
778 06-09-2017 11:36:17 16.9 C 20 %
779 06-09-2017 11:48:16 17 C 20 %
780 06-09-2017 12:00:16 17.5 C 21 %
781 06-09-2017 12:12:16 17.5 C 20 %
782 06-09-2017 12:24:18 18.2 C 20 %
783 06-09-2017 12:36:17 18.9 C 20 %
784 06-09-2017 12:48:17 19 C 20 %
785 06-09-2017 13:00:17 18.9 C 20 %
786 06-09-2017 13:12:17 19.4 C 20 %
787 06-09-2017 13:24:17 18.8 C 20 %
788 06-09-2017 13:36:17 18.7 C 20 %
789 06-09-2017 13:48:17 19.3 C 20 %
790 06-09-2017 14:00:17 18.5 C 20 %
791 06-09-2017 14:12:17 18.1 C 20 %
792 06-09-2017 14:24:17 18.4 C 20 %
793 06-09-2017 14:36:17 18.9 C 20 %
794 06-09-2017 14:48:17 19.2 C 20 %
795 06-09-2017 15:00:17 19.3 C 20 %
796 06-09-2017 15:12:17 20 C 20 %
797 06-09-2017 15:24:17 20 C 20 %
798 06-09-2017 15:36:17 19.7 C 20 %
799 06-09-2017 15:48:17 19.9 C 20 %
800 06-09-2017 16:00:17 19.8 C 20 %
Sensor: Nr:Datum:Temp:Feuchte:
Aussen-T/F 801 06-09-2017 16:12:17 19.3 C 20 %
802 06-09-2017 16:24:17 18.7 C 20 %
803 06-09-2017 16:36:17 19.2 C 20 %
804 06-09-2017 16:48:17 20 C 20 %
805 06-09-2017 17:00:17 19.6 C 20 %
806 06-09-2017 17:12:17 19.2 C 20 %
807 06-09-2017 17:24:17 19.8 C 20 %
808 06-09-2017 17:36:17 19.1 C 20 %
809 06-09-2017 17:48:17 19.1 C 20 %
810 06-09-2017 18:00:17 18.7 C 20 %
811 06-09-2017 18:12:17 18.3 C 20 %
812 06-09-2017 18:24:17 18.2 C 20 %
813 06-09-2017 18:36:17 17.9 C 20 %
814 06-09-2017 18:48:17 17.7 C 20 %
815 06-09-2017 19:00:17 17.4 C 20 %
816 06-09-2017 19:12:17 17 C 20 %
817 06-09-2017 19:24:17 16.9 C 20 %
818 06-09-2017 19:36:17 16.6 C 20 %
819 06-09-2017 19:48:17 16.4 C 20 %
820 06-09-2017 20:00:17 16.3 C 20 %
821 06-09-2017 20:12:17 16 C 20 %
822 06-09-2017 20:24:17 15.6 C 20 %
823 06-09-2017 20:36:17 15.5 C 20 %
824 06-09-2017 20:48:17 15.1 C 20 %
825 06-09-2017 21:00:17 14.9 C 20 %
Sensor: Nr:Datum:Temp:Feuchte:
Aussen-T/F 826 06-09-2017 21:12:17 14.9 C 20 %
827 06-09-2017 21:24:17 14.8 C 20 %
828 06-09-2017 21:36:17 14.9 C 20 %
829 06-09-2017 21:48:17 14.8 C 20 %
830 06-09-2017 22:00:17 14.7 C 20 %
831 06-09-2017 22:12:17 14.8 C 20 %
832 06-09-2017 22:24:17 14.8 C 20 %
833 06-09-2017 22:36:17 14.8 C 20 %
834 06-09-2017 22:48:17 14.6 C 20 %
835 06-09-2017 23:00:17 14.4 C 20 %
836 06-09-2017 23:12:17 14.3 C 20 %
837 06-09-2017 23:24:18 14.2 C 20 %
838 06-09-2017 23:36:17 14.2 C 20 %
839 06-09-2017 23:48:17 14.2 C 20 %
Sensor: Nr:Datum:Temp:Feuchte:
G-T/H 1 31-08-2017 00:11:18 20.6 C 71 %
2 31-08-2017 00:24:17 20.5 C 71 %
3 31-08-2017 00:36:17 20.5 C 71 %
4 31-08-2017 00:48:16 20.6 C 71 %
5 31-08-2017 01:00:18 20.5 C 71 %
6 31-08-2017 01:12:18 20.6 C 71 %
7 31-08-2017 01:24:17 20.5 C 71 %
8 31-08-2017 01:36:17 20.5 C 71 %
9 31-08-2017 01:48:17 20.5 C 71 %
10 31-08-2017 02:00:17 20.5 C 71 %
11 31-08-2017 02:12:17 20.5 C 71 %
12 31-08-2017 02:24:17 20.5 C 71 %
13 31-08-2017 02:36:17 20.5 C 71 %
14 31-08-2017 02:48:17 20.5 C 71 %
15 31-08-2017 03:00:17 20.4 C 72 %
16 31-08-2017 03:12:17 20.4 C 72 %
17 31-08-2017 03:24:17 20.4 C 72 %
18 31-08-2017 03:36:17 20.4 C 72 %
19 31-08-2017 03:48:17 20.4 C 72 %
20 31-08-2017 04:00:17 20.4 C 71 %
21 31-08-2017 04:12:17 20.4 C 71 %
22 31-08-2017 04:24:17 20.4 C 71 %
23 31-08-2017 04:36:17 20.4 C 71 %
24 31-08-2017 04:48:17 20.4 C 71 %
25 31-08-2017 05:00:17 20.4 C 72 %
Sensor: Nr:Datum:Temp:Feuchte:
G-T/H 26 31-08-2017 05:12:17 20.4 C 71 %
27 31-08-2017 05:24:17 20.4 C 71 %
28 31-08-2017 05:36:17 20.4 C 71 %
29 31-08-2017 05:48:17 20.3 C 71 %
30 31-08-2017 06:00:17 20.3 C 71 %
31 31-08-2017 06:12:17 20.3 C 71 %
32 31-08-2017 06:24:17 20.3 C 71 %
33 31-08-2017 06:36:17 20.3 C 72 %
34 31-08-2017 06:48:17 20.3 C 72 %
35 31-08-2017 07:00:17 20.3 C 71 %
36 31-08-2017 07:12:17 20.3 C 72 %
37 31-08-2017 07:24:17 20.2 C 71 %
38 31-08-2017 07:36:17 20.2 C 71 %
39 31-08-2017 07:48:17 20.2 C 71 %
40 31-08-2017 08:00:17 20.2 C 71 %
41 31-08-2017 08:12:17 20.2 C 71 %
42 31-08-2017 08:24:17 20.1 C 71 %
43 31-08-2017 08:36:17 20.1 C 71 %
44 31-08-2017 08:48:17 20.1 C 71 %
45 31-08-2017 09:00:17 20.1 C 71 %
46 31-08-2017 09:12:17 20 C 71 %
47 31-08-2017 09:24:17 20.1 C 71 %
48 31-08-2017 09:36:17 20 C 71 %
49 31-08-2017 09:48:17 20 C 71 %
50 31-08-2017 10:00:18 20 C 71 %
Sensor: Nr:Datum:Temp:Feuchte:
G-T/H 51 31-08-2017 10:12:18 20 C 71 %
52 31-08-2017 10:24:17 20 C 71 %
53 31-08-2017 10:36:17 20 C 71 %
54 31-08-2017 10:48:17 19.9 C 72 %
55 31-08-2017 11:00:17 19.9 C 72 %
56 31-08-2017 11:12:17 20 C 71 %
57 31-08-2017 11:24:17 19.9 C 72 %
58 31-08-2017 11:36:17 19.9 C 72 %
59 31-08-2017 11:48:17 19.9 C 72 %
60 31-08-2017 12:00:17 19.9 C 72 %
61 31-08-2017 12:12:17 19.8 C 72 %
62 31-08-2017 12:24:17 19.9 C 72 %
63 31-08-2017 12:36:17 19.9 C 72 %
64 31-08-2017 12:48:17 19.8 C 72 %
65 31-08-2017 13:00:17 19.8 C 71 %
66 31-08-2017 13:12:17 19.8 C 71 %
67 31-08-2017 13:24:17 19.8 C 71 %
68 31-08-2017 13:36:17 19.8 C 71 %
69 31-08-2017 13:48:17 19.8 C 71 %
70 31-08-2017 14:00:17 19.8 C 71 %
71 31-08-2017 14:12:17 19.7 C 71 %
72 31-08-2017 14:24:17 19.8 C 71 %
73 31-08-2017 14:36:17 19.7 C 71 %
74 31-08-2017 14:48:17 19.7 C 71 %
75 31-08-2017 15:00:17 19.7 C 71 %
Sensor: Nr:Datum:Temp:Feuchte:
G-T/H 76 31-08-2017 15:12:17 19.7 C 71 %
77 31-08-2017 15:24:17 19.7 C 71 %
78 31-08-2017 15:36:17 19.7 C 71 %
79 31-08-2017 15:48:17 19.7 C 71 %
80 31-08-2017 16:00:17 19.7 C 71 %
81 31-08-2017 16:12:17 19.7 C 71 %
82 31-08-2017 16:24:17 19.6 C 71 %
83 31-08-2017 16:36:17 19.5 C 69 %
84 31-08-2017 16:48:17 19.5 C 69 %
85 31-08-2017 17:00:17 19.5 C 68 %
86 31-08-2017 17:12:17 19.5 C 68 %
87 31-08-2017 17:24:17 19.5 C 68 %
88 31-08-2017 17:36:17 19.5 C 68 %
89 31-08-2017 17:48:17 19.5 C 68 %
90 31-08-2017 18:00:17 19.5 C 68 %
91 31-08-2017 18:12:17 19.5 C 69 %
92 31-08-2017 18:24:17 19.6 C 69 %
93 31-08-2017 18:36:17 19.5 C 69 %
94 31-08-2017 18:48:17 19.5 C 69 %
95 31-08-2017 19:00:17 19.5 C 69 %
96 31-08-2017 19:12:17 19.5 C 69 %
97 31-08-2017 19:24:18 19.5 C 69 %
98 31-08-2017 19:36:17 19.5 C 69 %
99 31-08-2017 19:48:17 19.5 C 69 %
100 31-08-2017 20:00:17 19.5 C 69 %
Sensor: Nr:Datum:Temp:Feuchte:
G-T/H 101 31-08-2017 20:12:18 19.5 C 70 %
102 31-08-2017 20:24:17 19.4 C 70 %
103 31-08-2017 20:36:17 19.4 C 70 %
104 31-08-2017 20:48:17 19.3 C 69 %
105 31-08-2017 21:00:17 19.1 C 68 %
106 31-08-2017 21:12:17 19.1 C 67 %
107 31-08-2017 21:24:17 19.1 C 66 %
108 31-08-2017 21:36:17 19 C 65 %
109 31-08-2017 21:48:17 19 C 65 %
110 31-08-2017 22:00:17 19.1 C 65 %
111 31-08-2017 22:12:17 19.1 C 66 %
112 31-08-2017 22:24:17 19.1 C 66 %
113 31-08-2017 22:36:17 19.1 C 66 %
114 31-08-2017 22:48:17 19 C 66 %
115 31-08-2017 23:00:17 19 C 66 %
116 31-08-2017 23:12:17 18.9 C 66 %
117 31-08-2017 23:24:17 18.9 C 66 %
118 31-08-2017 23:36:17 18.8 C 65 %
119 31-08-2017 23:48:17 18.7 C 65 %
120 01-09-2017 00:00:17 18.7 C 65 %
121 01-09-2017 00:12:18 18.6 C 64 %
122 01-09-2017 00:24:17 18.6 C 64 %
123 01-09-2017 00:36:17 18.5 C 64 %
124 01-09-2017 00:48:17 18.5 C 64 %
125 01-09-2017 01:00:17 18.5 C 64 %
Sensor: Nr:Datum:Temp:Feuchte:
G-T/H 126 01-09-2017 01:12:17 18.4 C 64 %
127 01-09-2017 01:24:17 18.4 C 63 %
128 01-09-2017 01:36:17 18.3 C 63 %
129 01-09-2017 01:48:17 18.3 C 63 %
130 01-09-2017 02:00:17 18.2 C 63 %
131 01-09-2017 02:12:17 18.2 C 63 %
132 01-09-2017 02:24:18 18.1 C 63 %
133 01-09-2017 02:36:17 18.1 C 62 %
134 01-09-2017 02:48:17 18.1 C 62 %
135 01-09-2017 03:00:17 18.1 C 62 %
136 01-09-2017 03:12:17 18.1 C 62 %
137 01-09-2017 03:24:17 18 C 62 %
138 01-09-2017 03:36:17 17.9 C 63 %
139 01-09-2017 03:48:17 17.9 C 63 %
140 01-09-2017 04:00:17 17.9 C 63 %
141 01-09-2017 04:12:17 17.9 C 62 %
142 01-09-2017 04:24:17 17.8 C 62 %
143 01-09-2017 04:36:17 17.8 C 62 %
144 01-09-2017 04:48:17 17.9 C 63 %
145 01-09-2017 05:00:17 17.9 C 63 %
146 01-09-2017 05:12:17 17.9 C 63 %
147 01-09-2017 05:24:17 17.9 C 64 %
148 01-09-2017 05:36:17 17.9 C 64 %
149 01-09-2017 05:48:17 18 C 63 %
150 01-09-2017 06:00:17 17.9 C 64 %
Sensor: Nr:Datum:Temp:Feuchte:
G-T/H 151 01-09-2017 06:12:17 17.9 C 64 %
152 01-09-2017 06:24:17 17.8 C 64 %
153 01-09-2017 06:36:17 17.7 C 64 %
154 01-09-2017 06:48:17 17.7 C 63 %
155 01-09-2017 07:00:17 17.6 C 63 %
156 01-09-2017 07:12:17 17.7 C 63 %
157 01-09-2017 07:24:17 17.7 C 63 %
158 01-09-2017 07:36:18 17.7 C 64 %
159 01-09-2017 07:48:17 17.7 C 64 %
160 01-09-2017 08:00:17 17.7 C 64 %
161 01-09-2017 08:12:17 17.6 C 63 %
162 01-09-2017 08:24:17 17.5 C 63 %
163 01-09-2017 08:36:17 17.6 C 64 %
164 01-09-2017 08:48:17 17.6 C 64 %
165 01-09-2017 09:00:17 17.6 C 64 %
166 01-09-2017 09:12:17 17.6 C 64 %
167 01-09-2017 09:24:17 17.6 C 64 %
168 01-09-2017 09:36:17 17.6 C 64 %
169 01-09-2017 09:48:17 17.6 C 65 %
170 01-09-2017 10:00:17 17.6 C 65 %
171 01-09-2017 10:12:17 17.6 C 65 %
172 01-09-2017 10:24:17 17.6 C 65 %
173 01-09-2017 10:36:17 17.6 C 65 %
174 01-09-2017 10:48:17 17.6 C 65 %
175 01-09-2017 11:00:17 17.6 C 65 %
Sensor: Nr:Datum:Temp:Feuchte:
G-T/H 176 01-09-2017 11:12:17 17.5 C 66 %
177 01-09-2017 11:24:17 17.6 C 66 %
178 01-09-2017 11:36:17 17.5 C 66 %
179 01-09-2017 11:48:17 17.6 C 66 %
180 01-09-2017 12:00:17 17.6 C 66 %
181 01-09-2017 12:12:17 17.6 C 66 %
182 01-09-2017 12:24:17 17.6 C 66 %
183 01-09-2017 12:36:17 17.6 C 66 %
184 01-09-2017 12:48:17 17.6 C 67 %
185 01-09-2017 13:00:17 17.6 C 67 %
186 01-09-2017 13:12:17 17.7 C 67 %
187 01-09-2017 13:24:17 17.7 C 67 %
188 01-09-2017 13:36:17 17.6 C 67 %
189 01-09-2017 13:48:17 17.7 C 67 %
190 01-09-2017 14:00:17 17.7 C 68 %
191 01-09-2017 14:12:17 17.7 C 68 %
192 01-09-2017 14:24:17 17.7 C 68 %
193 01-09-2017 14:36:17 17.7 C 68 %
194 01-09-2017 14:48:17 17.8 C 68 %
195 01-09-2017 15:00:17 17.8 C 68 %
196 01-09-2017 15:12:17 17.8 C 68 %
197 01-09-2017 15:24:17 17.8 C 68 %
198 01-09-2017 15:36:17 17.8 C 68 %
199 01-09-2017 15:48:17 17.8 C 68 %
200 01-09-2017 16:00:17 17.9 C 68 %
Sensor: Nr:Datum:Temp:Feuchte:
G-T/H 201 01-09-2017 16:12:17 17.9 C 67 %
202 01-09-2017 16:24:17 17.9 C 65 %
203 01-09-2017 16:36:17 18.2 C 62 %
204 01-09-2017 16:48:17 18.5 C 62 %
205 01-09-2017 17:00:17 18.6 C 62 %
206 01-09-2017 17:12:17 18.7 C 62 %
207 01-09-2017 17:24:17 18.7 C 63 %
208 01-09-2017 17:36:17 18.7 C 63 %
209 01-09-2017 17:48:17 18.6 C 63 %
210 01-09-2017 18:00:17 18.6 C 63 %
211 01-09-2017 18:12:17 18.6 C 64 %
212 01-09-2017 18:24:17 18.6 C 64 %
213 01-09-2017 18:36:17 18.6 C 64 %
214 01-09-2017 18:48:17 18.6 C 64 %
215 01-09-2017 19:00:17 18.6 C 65 %
216 01-09-2017 19:12:17 18.6 C 65 %
217 01-09-2017 19:24:17 18.6 C 65 %
218 01-09-2017 19:36:17 18.5 C 65 %
219 01-09-2017 19:48:17 18.5 C 65 %
220 01-09-2017 20:00:17 18.5 C 65 %
221 01-09-2017 20:12:17 18.5 C 66 %
222 01-09-2017 20:24:17 18.5 C 66 %
223 01-09-2017 20:36:18 18.5 C 66 %
224 01-09-2017 20:48:17 18.5 C 66 %
225 01-09-2017 21:00:17 18.5 C 67 %
Sensor: Nr:Datum:Temp:Feuchte:
G-T/H 226 01-09-2017 21:12:17 18.4 C 67 %
227 01-09-2017 21:24:17 18.4 C 67 %
228 01-09-2017 21:36:17 18.5 C 67 %
229 01-09-2017 21:48:17 18.4 C 67 %
230 01-09-2017 22:00:17 18.4 C 67 %
231 01-09-2017 22:12:17 18.3 C 68 %
232 01-09-2017 22:24:17 18.4 C 68 %
233 01-09-2017 22:36:17 18.3 C 68 %
234 01-09-2017 22:48:17 18.3 C 68 %
235 01-09-2017 23:00:17 18.3 C 68 %
236 01-09-2017 23:12:17 18.3 C 68 %
237 01-09-2017 23:24:17 18.3 C 68 %
238 01-09-2017 23:36:17 18.3 C 68 %
239 01-09-2017 23:48:17 18.3 C 68 %
240 02-09-2017 00:00:17 18.3 C 68 %
241 02-09-2017 00:12:17 18.2 C 68 %
242 02-09-2017 00:24:17 18.2 C 68 %
243 02-09-2017 00:36:17 18.2 C 68 %
244 02-09-2017 00:48:17 18.2 C 68 %
245 02-09-2017 01:00:17 18.2 C 68 %
246 02-09-2017 01:12:17 18.2 C 67 %
247 02-09-2017 01:24:17 18.1 C 67 %
248 02-09-2017 01:36:17 18.1 C 67 %
249 02-09-2017 01:48:17 18.1 C 67 %
250 02-09-2017 02:00:18 18.1 C 67 %
Sensor: Nr:Datum:Temp:Feuchte:
G-T/H 251 02-09-2017 02:12:18 18.1 C 67 %
252 02-09-2017 02:24:17 18.1 C 67 %
253 02-09-2017 02:36:17 18.1 C 67 %
254 02-09-2017 02:48:17 18 C 67 %
255 02-09-2017 03:00:17 18 C 67 %
256 02-09-2017 03:12:17 18 C 67 %
257 02-09-2017 03:24:17 18 C 67 %
258 02-09-2017 03:36:18 18 C 67 %
259 02-09-2017 03:48:17 18 C 67 %
260 02-09-2017 04:00:17 17.9 C 68 %
261 02-09-2017 04:12:17 17.9 C 68 %
262 02-09-2017 04:24:17 17.9 C 68 %
263 02-09-2017 04:36:17 17.9 C 68 %
264 02-09-2017 04:48:17 17.9 C 68 %
265 02-09-2017 05:00:17 17.9 C 68 %
266 02-09-2017 05:12:17 17.9 C 68 %
267 02-09-2017 05:24:17 17.9 C 68 %
268 02-09-2017 05:36:17 17.8 C 68 %
269 02-09-2017 05:48:17 17.8 C 68 %
270 02-09-2017 06:00:17 17.8 C 68 %
271 02-09-2017 06:12:17 17.7 C 68 %
272 02-09-2017 06:24:17 17.8 C 68 %
273 02-09-2017 06:36:17 17.7 C 68 %
274 02-09-2017 06:48:17 17.7 C 68 %
275 02-09-2017 07:00:17 17.7 C 68 %
Sensor: Nr:Datum:Temp:Feuchte:
G-T/H 276 02-09-2017 07:12:17 17.7 C 68 %
277 02-09-2017 07:24:17 17.7 C 68 %
278 02-09-2017 07:36:17 17.7 C 68 %
279 02-09-2017 07:48:17 17.7 C 68 %
280 02-09-2017 08:00:17 17.7 C 68 %
281 02-09-2017 08:12:17 17.6 C 68 %
282 02-09-2017 08:24:17 17.6 C 68 %
283 02-09-2017 08:36:17 17.6 C 68 %
284 02-09-2017 08:48:17 17.6 C 68 %
285 02-09-2017 09:00:17 17.6 C 68 %
286 02-09-2017 09:12:17 17.6 C 68 %
287 02-09-2017 09:24:17 17.6 C 68 %
288 02-09-2017 09:36:17 17.5 C 68 %
289 02-09-2017 09:48:17 17.5 C 68 %
290 02-09-2017 10:00:17 17.5 C 68 %
291 02-09-2017 10:12:17 17.5 C 68 %
292 02-09-2017 10:24:17 17.5 C 68 %
293 02-09-2017 10:36:17 17.5 C 68 %
294 02-09-2017 10:48:17 17.5 C 68 %
295 02-09-2017 11:00:17 17.5 C 68 %
296 02-09-2017 11:12:17 17.5 C 68 %
297 02-09-2017 11:24:17 17.5 C 68 %
298 02-09-2017 11:36:17 17.5 C 68 %
299 02-09-2017 11:48:17 17.5 C 68 %
300 02-09-2017 12:00:17 17.5 C 68 %
Sensor: Nr:Datum:Temp:Feuchte:
G-T/H 301 02-09-2017 12:12:17 17.5 C 69 %
302 02-09-2017 12:24:17 17.5 C 69 %
303 02-09-2017 12:36:17 17.5 C 69 %
304 02-09-2017 12:48:17 17.5 C 69 %
305 02-09-2017 13:00:17 17.5 C 69 %
306 02-09-2017 13:12:17 17.6 C 69 %
307 02-09-2017 13:24:17 17.6 C 69 %
308 02-09-2017 13:36:17 17.5 C 69 %
309 02-09-2017 13:48:17 17.5 C 69 %
310 02-09-2017 14:00:18 17.6 C 69 %
311 02-09-2017 14:12:18 17.6 C 69 %
312 02-09-2017 14:24:17 17.6 C 69 %
313 02-09-2017 14:36:17 17.6 C 69 %
314 02-09-2017 14:48:17 17.6 C 69 %
315 02-09-2017 15:00:17 17.7 C 69 %
316 02-09-2017 15:12:17 17.6 C 69 %
317 02-09-2017 15:24:17 17.7 C 69 %
318 02-09-2017 15:36:17 17.7 C 69 %
319 02-09-2017 15:48:17 17.7 C 69 %
320 02-09-2017 16:00:17 17.7 C 69 %
321 02-09-2017 16:12:17 17.7 C 69 %
322 02-09-2017 16:24:17 17.7 C 69 %
323 02-09-2017 16:36:17 17.7 C 69 %
324 02-09-2017 16:48:17 17.7 C 69 %
325 02-09-2017 17:00:17 17.7 C 69 %
Sensor: Nr:Datum:Temp:Feuchte:
G-T/H 326 02-09-2017 17:12:17 17.7 C 69 %
327 02-09-2017 17:24:17 17.7 C 69 %
328 02-09-2017 17:36:17 17.7 C 70 %
329 02-09-2017 17:48:17 17.7 C 70 %
330 02-09-2017 18:00:17 17.8 C 70 %
331 02-09-2017 18:12:17 17.8 C 70 %
332 02-09-2017 18:24:17 17.8 C 70 %
333 02-09-2017 18:36:17 17.8 C 70 %
334 02-09-2017 18:48:17 17.8 C 70 %
335 02-09-2017 19:00:17 17.8 C 70 %
336 02-09-2017 19:12:17 17.9 C 70 %
337 02-09-2017 19:24:17 17.8 C 70 %
338 02-09-2017 19:36:17 17.8 C 70 %
339 02-09-2017 19:48:17 17.8 C 70 %
340 02-09-2017 20:00:17 17.8 C 70 %
341 02-09-2017 20:12:17 17.8 C 70 %
342 02-09-2017 20:24:17 17.8 C 70 %
343 02-09-2017 20:36:17 17.8 C 70 %
344 02-09-2017 20:48:17 17.8 C 71 %
345 02-09-2017 21:00:17 17.8 C 71 %
346 02-09-2017 21:12:18 17.8 C 71 %
347 02-09-2017 21:24:17 17.7 C 71 %
348 02-09-2017 21:36:17 17.7 C 71 %
349 02-09-2017 21:48:17 17.8 C 70 %
350 02-09-2017 22:00:17 17.7 C 70 %
Sensor: Nr:Datum:Temp:Feuchte:
G-T/H 351 02-09-2017 22:12:17 17.7 C 70 %
352 02-09-2017 22:24:17 17.7 C 70 %
353 02-09-2017 22:36:17 17.7 C 70 %
354 02-09-2017 22:48:17 17.7 C 70 %
355 02-09-2017 23:00:17 17.7 C 70 %
356 02-09-2017 23:12:17 17.7 C 69 %
357 02-09-2017 23:24:17 17.7 C 69 %
358 02-09-2017 23:36:17 17.7 C 69 %
359 02-09-2017 23:48:17 17.7 C 69 %
360 03-09-2017 00:00:17 17.6 C 69 %
361 03-09-2017 00:12:17 17.6 C 69 %
362 03-09-2017 00:24:17 17.6 C 69 %
363 03-09-2017 00:36:17 17.6 C 69 %
364 03-09-2017 00:48:17 17.5 C 69 %
365 03-09-2017 01:00:17 17.5 C 69 %
366 03-09-2017 01:12:17 17.5 C 68 %
367 03-09-2017 01:24:17 17.5 C 68 %
368 03-09-2017 01:36:17 17.5 C 68 %
369 03-09-2017 01:48:17 17.5 C 68 %
370 03-09-2017 02:00:18 17.5 C 68 %
371 03-09-2017 02:12:18 17.5 C 68 %
372 03-09-2017 02:24:17 17.4 C 68 %
373 03-09-2017 02:36:17 17.4 C 68 %
374 03-09-2017 02:48:17 17.4 C 68 %
375 03-09-2017 03:00:17 17.4 C 68 %
Sensor: Nr:Datum:Temp:Feuchte:
G-T/H 376 03-09-2017 03:12:17 17.3 C 68 %
377 03-09-2017 03:24:17 17.3 C 68 %
378 03-09-2017 03:36:18 17.3 C 68 %
379 03-09-2017 03:48:17 17.2 C 68 %
380 03-09-2017 04:00:17 17.2 C 68 %
381 03-09-2017 04:12:17 17.2 C 68 %
382 03-09-2017 04:24:17 17.1 C 67 %
383 03-09-2017 04:36:17 17 C 67 %
384 03-09-2017 04:48:17 17 C 66 %
385 03-09-2017 05:00:18 16.9 C 67 %
386 03-09-2017 05:12:18 16.9 C 67 %
387 03-09-2017 05:24:17 16.9 C 67 %
388 03-09-2017 05:36:17 16.9 C 67 %
389 03-09-2017 05:48:17 16.9 C 67 %
390 03-09-2017 06:00:17 16.8 C 67 %
391 03-09-2017 06:12:17 16.8 C 66 %
392 03-09-2017 06:24:17 16.8 C 66 %
393 03-09-2017 06:36:17 16.6 C 66 %
394 03-09-2017 06:48:17 16.7 C 66 %
395 03-09-2017 07:00:18 16.6 C 66 %
396 03-09-2017 07:12:18 16.6 C 66 %
397 03-09-2017 07:24:17 16.6 C 66 %
398 03-09-2017 07:36:17 16.6 C 66 %
399 03-09-2017 07:48:17 16.6 C 66 %
400 03-09-2017 08:00:17 16.6 C 66 %
Sensor: Nr:Datum:Temp:Feuchte:
G-T/H 401 03-09-2017 08:12:18 16.6 C 66 %
402 03-09-2017 08:24:17 16.7 C 67 %
403 03-09-2017 08:36:17 16.6 C 67 %
404 03-09-2017 08:48:17 16.6 C 66 %
405 03-09-2017 09:00:18 16.6 C 66 %
406 03-09-2017 09:12:18 16.6 C 67 %
407 03-09-2017 09:24:17 16.6 C 67 %
408 03-09-2017 09:36:17 16.6 C 67 %
409 03-09-2017 09:48:17 16.6 C 67 %
410 03-09-2017 10:00:17 16.6 C 67 %
411 03-09-2017 10:12:17 16.6 C 67 %
412 03-09-2017 10:24:17 16.6 C 67 %
413 03-09-2017 10:36:17 16.6 C 67 %
414 03-09-2017 10:48:17 16.6 C 67 %
415 03-09-2017 11:00:18 16.6 C 68 %
416 03-09-2017 11:12:18 16.6 C 68 %
417 03-09-2017 11:24:17 16.6 C 68 %
418 03-09-2017 11:36:17 16.6 C 68 %
419 03-09-2017 11:48:17 16.6 C 68 %
420 03-09-2017 12:00:17 16.6 C 68 %
421 03-09-2017 12:12:17 16.6 C 68 %
422 03-09-2017 12:24:17 16.6 C 68 %
423 03-09-2017 12:36:17 16.6 C 68 %
424 03-09-2017 12:48:17 16.6 C 68 %
425 03-09-2017 13:00:17 16.6 C 68 %
Sensor: Nr:Datum:Temp:Feuchte:
G-T/H 426 03-09-2017 13:12:17 16.6 C 68 %
427 03-09-2017 13:24:17 16.6 C 69 %
428 03-09-2017 13:36:17 16.6 C 69 %
429 03-09-2017 13:48:17 16.7 C 69 %
430 03-09-2017 14:00:17 16.7 C 69 %
431 03-09-2017 14:12:17 16.7 C 69 %
432 03-09-2017 14:24:17 16.7 C 69 %
433 03-09-2017 14:36:17 16.7 C 69 %
434 03-09-2017 14:48:17 16.7 C 69 %
435 03-09-2017 15:00:17 16.7 C 69 %
436 03-09-2017 15:12:17 16.7 C 69 %
437 03-09-2017 15:24:16 16.8 C 69 %
438 03-09-2017 15:36:17 16.8 C 69 %
439 03-09-2017 15:48:17 16.7 C 69 %
440 03-09-2017 16:00:18 16.8 C 69 %
441 03-09-2017 16:12:18 16.8 C 69 %
442 03-09-2017 16:24:17 16.8 C 69 %
443 03-09-2017 16:36:17 16.9 C 69 %
444 03-09-2017 16:48:17 16.9 C 69 %
445 03-09-2017 17:00:17 16.9 C 70 %
446 03-09-2017 17:12:17 16.9 C 70 %
447 03-09-2017 17:24:17 16.9 C 70 %
448 03-09-2017 17:36:17 16.9 C 70 %
449 03-09-2017 17:48:17 17 C 69 %
450 03-09-2017 18:00:18 17 C 69 %
Sensor: Nr:Datum:Temp:Feuchte:
G-T/H 451 03-09-2017 18:12:18 16.9 C 70 %
452 03-09-2017 18:24:17 17 C 69 %
453 03-09-2017 18:36:17 17 C 69 %
454 03-09-2017 18:48:17 17 C 69 %
455 03-09-2017 19:00:18 16.8 C 70 %
456 03-09-2017 19:12:18 17 C 69 %
457 03-09-2017 19:24:18 17 C 69 %
458 03-09-2017 19:36:17 17 C 69 %
459 03-09-2017 19:48:17 17 C 69 %
460 03-09-2017 20:00:17 17 C 69 %
461 03-09-2017 20:12:17 17 C 69 %
462 03-09-2017 20:24:17 17 C 69 %
463 03-09-2017 20:36:17 17 C 69 %
464 03-09-2017 20:48:17 17 C 69 %
465 03-09-2017 21:00:17 17 C 69 %
466 03-09-2017 21:12:17 17 C 69 %
467 03-09-2017 21:24:17 17 C 69 %
468 03-09-2017 21:36:17 17 C 69 %
469 03-09-2017 21:48:17 17 C 69 %
470 03-09-2017 22:00:17 17 C 69 %
471 03-09-2017 22:12:17 17 C 69 %
472 03-09-2017 22:24:17 17 C 69 %
473 03-09-2017 22:36:17 17 C 69 %
474 03-09-2017 22:48:17 16.9 C 69 %
475 03-09-2017 23:00:17 16.8 C 69 %
Sensor: Nr:Datum:Temp:Feuchte:
G-T/H 476 03-09-2017 23:12:17 16.8 C 68 %
477 03-09-2017 23:24:17 16.8 C 68 %
478 03-09-2017 23:36:17 16.9 C 68 %
479 03-09-2017 23:48:17 16.9 C 69 %
480 04-09-2017 00:00:18 16.9 C 69 %
481 04-09-2017 00:12:18 16.8 C 69 %
482 04-09-2017 00:24:17 16.8 C 69 %
483 04-09-2017 00:36:17 16.7 C 69 %
484 04-09-2017 00:48:17 16.8 C 69 %
485 04-09-2017 01:00:17 16.8 C 69 %
486 04-09-2017 01:12:17 16.8 C 69 %
487 04-09-2017 01:24:17 16.8 C 69 %
488 04-09-2017 01:36:17 16.8 C 69 %
489 04-09-2017 01:48:17 16.8 C 69 %
490 04-09-2017 02:00:17 16.8 C 69 %
491 04-09-2017 02:12:17 16.8 C 69 %
492 04-09-2017 02:24:17 16.7 C 69 %
493 04-09-2017 02:36:17 16.7 C 69 %
494 04-09-2017 02:48:17 16.6 C 69 %
495 04-09-2017 03:00:17 16.7 C 69 %
496 04-09-2017 03:12:17 16.6 C 69 %
497 04-09-2017 03:24:17 16.6 C 69 %
498 04-09-2017 03:36:17 16.6 C 69 %
499 04-09-2017 03:48:17 16.6 C 69 %
500 04-09-2017 04:00:17 16.6 C 69 %
Sensor: Nr:Datum:Temp:Feuchte:
G-T/H 501 04-09-2017 04:12:17 16.5 C 68 %
502 04-09-2017 04:24:17 16.4 C 68 %
503 04-09-2017 04:36:17 16.4 C 67 %
504 04-09-2017 04:48:17 16.3 C 67 %
505 04-09-2017 05:00:17 16.3 C 67 %
506 04-09-2017 05:12:18 16.2 C 66 %
507 04-09-2017 05:24:17 16.2 C 66 %
508 04-09-2017 05:36:17 16.2 C 66 %
509 04-09-2017 05:48:16 16.1 C 66 %
510 04-09-2017 06:00:17 16.1 C 66 %
511 04-09-2017 06:12:17 16.1 C 66 %
512 04-09-2017 06:24:17 16 C 66 %
513 04-09-2017 06:36:17 16.1 C 66 %
514 04-09-2017 06:48:17 16.1 C 66 %
515 04-09-2017 07:00:17 16.1 C 66 %
516 04-09-2017 07:12:17 15.1 C 64 %
517 04-09-2017 07:24:17 14.2 C 65 %
518 04-09-2017 07:36:17 14 C 66 %
519 04-09-2017 07:48:18 13.7 C 67 %
520 04-09-2017 08:00:17 13.4 C 68 %
521 04-09-2017 08:12:18 13.4 C 68 %
522 04-09-2017 08:24:17 13.3 C 69 %
523 04-09-2017 08:36:17 13.3 C 69 %
524 04-09-2017 08:48:17 13.2 C 69 %
525 04-09-2017 09:00:17 13.1 C 69 %
Sensor: Nr:Datum:Temp:Feuchte:
G-T/H 526 04-09-2017 09:12:17 13.2 C 69 %
527 04-09-2017 09:24:17 13.2 C 70 %
528 04-09-2017 09:36:17 13.4 C 70 %
529 04-09-2017 09:48:17 13.5 C 70 %
530 04-09-2017 10:00:17 13.5 C 70 %
531 04-09-2017 10:12:17 13.7 C 71 %
532 04-09-2017 10:24:17 13.8 C 71 %
533 04-09-2017 10:36:17 14 C 70 %
534 04-09-2017 10:48:17 14.2 C 71 %
535 04-09-2017 11:00:17 14.5 C 71 %
536 04-09-2017 11:12:17 14.6 C 71 %
537 04-09-2017 11:24:17 15 C 71 %
538 04-09-2017 11:36:17 15.1 C 71 %
539 04-09-2017 11:48:17 15.2 C 71 %
540 04-09-2017 12:00:17 15.4 C 70 %
541 04-09-2017 12:12:17 15.9 C 70 %
542 04-09-2017 12:24:17 16 C 69 %
543 04-09-2017 12:36:17 16.1 C 69 %
544 04-09-2017 12:48:17 16.2 C 69 %
545 04-09-2017 13:00:17 16.2 C 69 %
546 04-09-2017 13:12:17 16.2 C 69 %
547 04-09-2017 13:24:17 16.2 C 69 %
548 04-09-2017 13:36:17 16.2 C 69 %
549 04-09-2017 13:48:17 16.3 C 69 %
550 04-09-2017 14:00:17 16.2 C 69 %
Sensor: Nr:Datum:Temp:Feuchte:
G-T/H 551 04-09-2017 14:12:17 16.2 C 69 %
552 04-09-2017 14:24:17 16.3 C 69 %
553 04-09-2017 14:36:17 16.3 C 69 %
554 04-09-2017 14:48:17 16.3 C 69 %
555 04-09-2017 15:00:17 16.3 C 69 %
556 04-09-2017 15:12:17 16.4 C 69 %
557 04-09-2017 15:24:17 16.4 C 69 %
558 04-09-2017 15:36:17 16.4 C 69 %
559 04-09-2017 15:48:17 16.4 C 70 %
560 04-09-2017 16:00:17 16.4 C 70 %
561 04-09-2017 16:12:17 16.5 C 70 %
562 04-09-2017 16:24:17 16.5 C 70 %
563 04-09-2017 16:36:17 16.5 C 70 %
564 04-09-2017 16:48:17 16.5 C 70 %
565 04-09-2017 17:00:17 16.6 C 70 %
566 04-09-2017 17:12:17 16.6 C 70 %
567 04-09-2017 17:24:18 16.6 C 70 %
568 04-09-2017 17:36:17 16.6 C 70 %
569 04-09-2017 17:48:17 16.6 C 70 %
570 04-09-2017 18:00:17 16.6 C 71 %
571 04-09-2017 18:12:17 16.6 C 71 %
572 04-09-2017 18:24:17 16.7 C 71 %
573 04-09-2017 18:36:17 16.7 C 71 %
574 04-09-2017 18:48:17 16.7 C 71 %
575 04-09-2017 19:00:17 16.7 C 71 %
Sensor: Nr:Datum:Temp:Feuchte:
G-T/H 576 04-09-2017 19:12:17 16.7 C 71 %
577 04-09-2017 19:24:17 16.7 C 71 %
578 04-09-2017 19:36:17 16.7 C 71 %
579 04-09-2017 19:48:17 16.8 C 71 %
580 04-09-2017 20:00:17 16.8 C 71 %
581 04-09-2017 20:12:17 16.7 C 71 %
582 04-09-2017 20:24:17 16.8 C 71 %
583 04-09-2017 20:36:17 16.8 C 71 %
584 04-09-2017 20:48:17 16.8 C 71 %
585 04-09-2017 21:00:17 16.8 C 71 %
586 04-09-2017 21:12:18 16.8 C 71 %
587 04-09-2017 21:24:17 16.9 C 71 %
588 04-09-2017 21:36:17 16.8 C 71 %
589 04-09-2017 21:48:17 16.8 C 71 %
590 04-09-2017 22:00:17 16.8 C 71 %
591 04-09-2017 22:12:17 16.9 C 71 %
592 04-09-2017 22:24:16 16.9 C 71 %
593 04-09-2017 22:36:17 16.9 C 71 %
594 04-09-2017 22:48:17 16.9 C 71 %
595 04-09-2017 23:00:17 16.9 C 72 %
596 04-09-2017 23:12:17 16.9 C 72 %
597 04-09-2017 23:24:17 16.9 C 72 %
598 04-09-2017 23:36:17 16.9 C 72 %
599 04-09-2017 23:48:17 16.9 C 72 %
600 05-09-2017 00:00:17 16.9 C 72 %
Sensor: Nr:Datum:Temp:Feuchte:
G-T/H 601 05-09-2017 00:12:17 16.9 C 72 %
602 05-09-2017 00:24:17 16.9 C 72 %
603 05-09-2017 00:36:17 16.9 C 72 %
604 05-09-2017 00:48:17 16.9 C 72 %
605 05-09-2017 01:00:17 16.9 C 72 %
606 05-09-2017 01:12:17 16.9 C 72 %
607 05-09-2017 01:24:17 16.9 C 72 %
608 05-09-2017 01:36:17 16.9 C 72 %
609 05-09-2017 01:48:17 16.9 C 72 %
610 05-09-2017 02:00:17 16.9 C 72 %
611 05-09-2017 02:12:17 16.9 C 72 %
612 05-09-2017 02:24:17 16.9 C 72 %
613 05-09-2017 02:36:17 16.9 C 72 %
614 05-09-2017 02:48:17 17 C 71 %
615 05-09-2017 03:00:17 16.9 C 72 %
616 05-09-2017 03:12:18 16.9 C 72 %
617 05-09-2017 03:24:17 16.9 C 72 %
618 05-09-2017 03:36:17 17 C 71 %
619 05-09-2017 03:48:17 17 C 71 %
620 05-09-2017 04:00:18 16.9 C 72 %
621 05-09-2017 04:12:18 16.9 C 72 %
622 05-09-2017 04:24:17 16.9 C 72 %
623 05-09-2017 04:36:17 16.9 C 72 %
624 05-09-2017 04:48:17 16.9 C 72 %
625 05-09-2017 05:00:17 16.9 C 72 %
Sensor: Nr:Datum:Temp:Feuchte:
G-T/H 626 05-09-2017 05:12:18 16.9 C 72 %
627 05-09-2017 05:24:17 16.9 C 72 %
628 05-09-2017 05:36:17 16.9 C 72 %
629 05-09-2017 05:48:17 16.9 C 72 %
630 05-09-2017 06:00:17 16.9 C 72 %
631 05-09-2017 06:12:17 16.9 C 72 %
632 05-09-2017 06:24:17 16.8 C 72 %
633 05-09-2017 06:36:17 16.9 C 72 %
634 05-09-2017 06:48:17 16.9 C 72 %
635 05-09-2017 07:00:17 16.9 C 72 %
636 05-09-2017 07:12:17 16.8 C 72 %
637 05-09-2017 07:24:17 16.9 C 72 %
638 05-09-2017 07:36:17 16.9 C 72 %
639 05-09-2017 07:48:17 16.6 C 72 %
640 05-09-2017 08:00:17 16.4 C 73 %
641 05-09-2017 08:12:17 16.4 C 74 %
642 05-09-2017 08:24:17 16.4 C 74 %
643 05-09-2017 08:36:17 16.4 C 75 %
644 05-09-2017 08:48:17 16.5 C 75 %
645 05-09-2017 09:00:17 16.5 C 75 %
646 05-09-2017 09:12:17 16.6 C 76 %
647 05-09-2017 09:24:17 16.6 C 76 %
648 05-09-2017 09:36:17 16.6 C 77 %
649 05-09-2017 09:48:17 16.5 C 77 %
650 05-09-2017 10:00:17 16.5 C 77 %
Sensor: Nr:Datum:Temp:Feuchte:
G-T/H 651 05-09-2017 10:12:17 16.6 C 77 %
652 05-09-2017 10:24:17 16.8 C 77 %
653 05-09-2017 10:36:17 17 C 77 %
654 05-09-2017 10:48:17 17.1 C 77 %
655 05-09-2017 11:00:17 17.3 C 77 %
656 05-09-2017 11:12:17 17.4 C 77 %
657 05-09-2017 11:24:17 17.6 C 77 %
658 05-09-2017 11:36:17 17.7 C 77 %
659 05-09-2017 11:48:17 17.8 C 77 %
660 05-09-2017 12:00:17 17.9 C 78 %
661 05-09-2017 12:12:17 18 C 77 %
662 05-09-2017 12:24:17 18.2 C 77 %
663 05-09-2017 12:36:17 18.3 C 77 %
664 05-09-2017 12:48:17 18.3 C 77 %
665 05-09-2017 13:00:17 18.5 C 79 %
666 05-09-2017 13:12:17 18.8 C 80 %
667 05-09-2017 13:24:17 19 C 78 %
668 05-09-2017 13:36:17 19.2 C 78 %
669 05-09-2017 13:48:17 19.3 C 76 %
670 05-09-2017 14:00:17 19.5 C 75 %
671 05-09-2017 14:12:17 19.6 C 75 %
672 05-09-2017 14:24:17 19.8 C 74 %
673 05-09-2017 14:36:17 20 C 72 %
674 05-09-2017 14:48:17 20.3 C 71 %
675 05-09-2017 15:00:17 20.4 C 69 %
Sensor: Nr:Datum:Temp:Feuchte:
G-T/H 676 05-09-2017 15:12:17 20.6 C 69 %
677 05-09-2017 15:24:17 20.7 C 68 %
678 05-09-2017 15:36:17 20.9 C 67 %
679 05-09-2017 15:48:17 21 C 64 %
680 05-09-2017 16:00:17 21 C 65 %
681 05-09-2017 16:12:17 21 C 65 %
682 05-09-2017 16:24:17 20.9 C 67 %
683 05-09-2017 16:36:17 21 C 67 %
684 05-09-2017 16:48:17 21 C 67 %
685 05-09-2017 17:00:17 21 C 67 %
686 05-09-2017 17:12:17 21 C 68 %
687 05-09-2017 17:24:17 20.8 C 69 %
688 05-09-2017 17:36:18 20.7 C 69 %
689 05-09-2017 17:48:17 20.5 C 69 %
690 05-09-2017 18:00:17 20.3 C 69 %
691 05-09-2017 18:12:17 20.2 C 70 %
692 05-09-2017 18:24:17 20.1 C 70 %
693 05-09-2017 18:36:17 20 C 70 %
694 05-09-2017 18:48:17 19.9 C 71 %
695 05-09-2017 19:00:17 19.9 C 72 %
696 05-09-2017 19:12:17 19.7 C 72 %
697 05-09-2017 19:24:16 19.7 C 72 %
698 05-09-2017 19:36:17 19.7 C 72 %
699 05-09-2017 19:48:17 19.6 C 72 %
700 05-09-2017 20:00:17 19.6 C 72 %
Sensor: Nr:Datum:Temp:Feuchte:
G-T/H 701 05-09-2017 20:12:17 19.5 C 72 %
702 05-09-2017 20:24:17 19.5 C 72 %
703 05-09-2017 20:36:17 19.5 C 72 %
704 05-09-2017 20:48:17 19.4 C 72 %
705 05-09-2017 21:00:17 19.4 C 72 %
706 05-09-2017 21:12:17 19.4 C 72 %
707 05-09-2017 21:24:17 19.4 C 72 %
708 05-09-2017 21:36:17 19.3 C 72 %
709 05-09-2017 21:48:17 19.3 C 72 %
710 05-09-2017 22:00:17 19.3 C 72 %
711 05-09-2017 22:12:17 19.2 C 73 %
712 05-09-2017 22:24:17 19.2 C 73 %
713 05-09-2017 22:36:17 19.2 C 73 %
714 05-09-2017 22:48:17 19.2 C 73 %
715 05-09-2017 23:00:18 19.1 C 73 %
716 05-09-2017 23:12:18 19.1 C 73 %
717 05-09-2017 23:24:17 19.1 C 73 %
718 05-09-2017 23:36:17 19.1 C 73 %
719 05-09-2017 23:48:17 19.1 C 73 %
720 06-09-2017 00:00:17 19 C 73 %
721 06-09-2017 00:12:17 19 C 73 %
722 06-09-2017 00:24:17 19 C 73 %
723 06-09-2017 00:36:17 19 C 73 %
724 06-09-2017 00:48:17 19 C 73 %
725 06-09-2017 01:00:17 18.9 C 74 %
Sensor: Nr:Datum:Temp:Feuchte:
G-T/H 726 06-09-2017 01:12:17 18.9 C 74 %
727 06-09-2017 01:24:17 18.9 C 74 %
728 06-09-2017 01:36:17 18.9 C 73 %
729 06-09-2017 01:48:18 18.9 C 73 %
730 06-09-2017 02:00:17 18.8 C 73 %
731 06-09-2017 02:12:17 18.8 C 73 %
732 06-09-2017 02:24:17 18.8 C 73 %
733 06-09-2017 02:36:17 18.8 C 73 %
734 06-09-2017 02:48:17 18.8 C 73 %
735 06-09-2017 03:00:17 18.8 C 73 %
736 06-09-2017 03:12:17 18.8 C 73 %
737 06-09-2017 03:24:17 18.7 C 73 %
738 06-09-2017 03:36:17 18.7 C 73 %
739 06-09-2017 03:48:17 18.7 C 73 %
740 06-09-2017 04:00:17 18.7 C 73 %
741 06-09-2017 04:12:17 18.7 C 73 %
742 06-09-2017 04:24:17 18.7 C 73 %
743 06-09-2017 04:36:17 18.7 C 73 %
744 06-09-2017 04:48:17 18.7 C 73 %
745 06-09-2017 05:00:17 18.7 C 73 %
746 06-09-2017 05:12:17 18.6 C 73 %
747 06-09-2017 05:24:17 18.6 C 73 %
748 06-09-2017 05:36:17 18.6 C 73 %
749 06-09-2017 05:48:18 18.6 C 73 %
750 06-09-2017 06:00:17 18.6 C 73 %
Sensor: Nr:Datum:Temp:Feuchte:
G-T/H 751 06-09-2017 06:12:17 18.6 C 73 %
752 06-09-2017 06:24:16 18.6 C 73 %
753 06-09-2017 06:36:18 18.6 C 73 %
754 06-09-2017 06:48:17 18.6 C 73 %
755 06-09-2017 07:00:17 18.5 C 73 %
756 06-09-2017 07:12:18 18.5 C 73 %
757 06-09-2017 07:24:17 18.4 C 73 %
758 06-09-2017 07:36:17 18.3 C 73 %
759 06-09-2017 07:48:17 18.3 C 73 %
760 06-09-2017 08:00:17 18.3 C 73 %
761 06-09-2017 08:12:17 18.3 C 73 %
762 06-09-2017 08:24:17 18.4 C 72 %
763 06-09-2017 08:36:17 18.4 C 72 %
764 06-09-2017 08:48:17 18.4 C 72 %
765 06-09-2017 09:00:17 18.5 C 72 %
766 06-09-2017 09:12:17 18.5 C 71 %
767 06-09-2017 09:24:17 18.5 C 71 %
768 06-09-2017 09:36:17 18.6 C 71 %
769 06-09-2017 09:48:17 18.7 C 70 %
770 06-09-2017 10:00:17 18.7 C 70 %
771 06-09-2017 10:12:18 18.8 C 69 %
772 06-09-2017 10:24:17 18.9 C 69 %
773 06-09-2017 10:36:17 19 C 67 %
774 06-09-2017 10:48:17 19 C 67 %
775 06-09-2017 11:00:17 18.8 C 67 %
Sensor: Nr:Datum:Temp:Feuchte:
G-T/H 776 06-09-2017 11:12:17 18.6 C 68 %
777 06-09-2017 11:24:17 18.5 C 68 %
778 06-09-2017 11:36:17 18.4 C 68 %
779 06-09-2017 11:48:16 18.5 C 68 %
780 06-09-2017 12:00:16 18.4 C 67 %
781 06-09-2017 12:12:16 18.5 C 67 %
782 06-09-2017 12:24:18 18.4 C 65 %
783 06-09-2017 12:36:17 18.4 C 64 %
784 06-09-2017 12:48:17 18.5 C 63 %
785 06-09-2017 13:00:17 18.5 C 62 %
786 06-09-2017 13:12:17 18.6 C 61 %
787 06-09-2017 13:24:17 18.6 C 60 %
788 06-09-2017 13:36:17 18.5 C 60 %
789 06-09-2017 13:48:17 18.6 C 59 %
790 06-09-2017 14:00:17 18.5 C 58 %
791 06-09-2017 14:12:17 18.4 C 58 %
792 06-09-2017 14:24:17 18.4 C 58 %
793 06-09-2017 14:36:17 18.4 C 57 %
794 06-09-2017 14:48:17 18.5 C 56 %
795 06-09-2017 15:00:17 18.5 C 56 %
796 06-09-2017 15:12:17 18.6 C 55 %
797 06-09-2017 15:24:17 18.6 C 54 %
798 06-09-2017 15:36:17 18.6 C 54 %
799 06-09-2017 15:48:17 18.6 C 53 %
800 06-09-2017 16:00:17 18.7 C 53 %
Sensor: Nr:Datum:Temp:Feuchte:
G-T/H 801 06-09-2017 16:12:17 18.6 C 52 %
802 06-09-2017 16:24:17 18.5 C 52 %
803 06-09-2017 16:36:17 18.5 C 52 %
804 06-09-2017 16:48:17 18.6 C 52 %
805 06-09-2017 17:00:17 18.6 C 52 %
806 06-09-2017 17:12:17 18.6 C 51 %
807 06-09-2017 17:24:17 18.6 C 51 %
808 06-09-2017 17:36:17 19.2 C 49 %
809 06-09-2017 17:48:17 19.4 C 50 %
810 06-09-2017 18:00:17 19.4 C 51 %
811 06-09-2017 18:12:17 19.4 C 52 %
812 06-09-2017 18:24:17 19.3 C 53 %
813 06-09-2017 18:36:17 19.3 C 54 %
814 06-09-2017 18:48:17 19.2 C 55 %
815 06-09-2017 19:00:17 19.2 C 55 %
816 06-09-2017 19:12:17 19.1 C 56 %
817 06-09-2017 19:24:17 19.1 C 56 %
818 06-09-2017 19:36:17 19 C 57 %
819 06-09-2017 19:48:17 19 C 57 %
820 06-09-2017 20:00:17 19 C 57 %
821 06-09-2017 20:12:17 19 C 58 %
822 06-09-2017 20:24:17 18.9 C 59 %
823 06-09-2017 20:36:17 18.9 C 59 %
824 06-09-2017 20:48:17 18.9 C 59 %
825 06-09-2017 21:00:17 18.8 C 60 %
Sensor: Nr:Datum:Temp:Feuchte:
G-T/H 826 06-09-2017 21:12:17 18.8 C 60 %
827 06-09-2017 21:24:17 18.8 C 60 %
828 06-09-2017 21:36:17 18.8 C 60 %
829 06-09-2017 21:48:17 18.8 C 61 %
830 06-09-2017 22:00:17 18.7 C 61 %
831 06-09-2017 22:12:17 18.7 C 61 %
832 06-09-2017 22:24:17 18.7 C 62 %
833 06-09-2017 22:36:17 18.7 C 62 %
834 06-09-2017 22:48:17 18.7 C 63 %
835 06-09-2017 23:00:17 18.6 C 63 %
836 06-09-2017 23:12:17 18.6 C 63 %
837 06-09-2017 23:24:18 18.6 C 63 %
838 06-09-2017 23:36:17 18.5 C 64 %
839 06-09-2017 23:48:17 18.5 C 64 %

Legende:
   Min
   Max


Maximal/Minimal-Werte vom 31.08.2017 - 06.09.2017

Sensor Min Max Avg
Temp
(Aussen-T/F)
8.7 °C
04-09-2017  04:24:17
26.1 °C
05-09-2017  15:48:17
15.44 °C
Feuchte
(Aussen-T/F)
20 %
31-08-2017  00:11:18
66 %
05-09-2017  08:00:17
32.17 %
Temp
(G-T/H)
13.1 °C
04-09-2017  09:00:17
21 °C
05-09-2017  15:48:17
17.94 °C
Feuchte
(G-T/H)
49 %
06-09-2017  17:36:17
80 %
05-09-2017  13:12:17
68.38 %

Die Daten stammen von einer Davis Vantage Pro 2 Wetter-Station und werden unter Linux mit der Software wview2wettercgi und aufbereitet. Alle Angaben erfolgen ohne Gewähr für ihre Vollständigkeit oder Richtigkeit.
Kontakt: Rainer Krienke krienke@uni-koblenz.de . Meine Webseiten an der Uni Koblenz oder privat.
Version: $Revision: 0.78 $